Latitude: N 50° 09' 49" Longitude: W 05° 11' 53" Elevation: 168m ASL

There are 6 visitors online

Adverts

<- Previous Day | Today | Next Day ->

All Data for 19 February 2018

Time
A - D
Temp
A - D
Dew Point
A - D
Humidity
A - D
Pressure
A - D
Wind
A - D
Wind Dir Gust
A - D
Rain Rate
A - D
Rain Total
00:00 9.6 9.5 99 1019.3 4.5 WSW 10.7 0.0 0.0
00:01 9.6 9.5 99 1019.6 4.5 WSW 10.7 0.0 0.0
00:03 9.6 9.5 99 1019.4 4.5 WSW 10.7 0.0 0.0
00:04 9.6 9.5 99 1019.5 4.5 WSW 10.7 0.0 0.0
00:06 9.6 9.5 99 1019.5 7.6 W 10.7 0.0 0.0
00:07 9.5 9.4 99 1019.3 6.0 NW 10.7 0.0 0.0
00:09 9.6 9.5 99 1019.3 5.4 WSW 10.7 0.0 0.0
00:11 9.5 9.4 99 1019.5 4.5 W 8.3 0.0 0.0
00:13 9.5 9.4 99 1019.2 11.4 W 11.4 0.0 0.0
00:15 9.5 9.4 99 1019.4 9.2 W 11.4 0.0 0.0
00:17 9.5 9.4 99 1019.3 5.4 W 11.4 0.0 0.0
00:19 9.5 9.4 99 1019.2 6.0 W 11.4 0.0 0.0
00:21 9.5 9.4 99 1019.2 5.4 W 11.4 0.0 0.0
00:22 9.5 9.4 99 1019.2 7.6 W 11.4 0.0 0.0
00:25 9.5 9.4 99 1019.3 8.3 NW 9.2 0.0 0.0
00:27 9.5 9.4 99 1019.2 6.9 W 9.8 0.0 0.0
00:29 9.5 9.4 99 1019.2 8.3 W 9.8 0.0 0.0
00:32 9.5 9.4 99 1019.2 6.0 NW 9.8 0.0 0.0
00:34 9.5 9.4 99 1019.3 5.4 W 9.8 0.0 0.0
00:37 9.5 9.4 99 1019.3 9.2 NW 9.2 0.0 0.0
00:39 9.5 9.4 99 1019.3 6.9 W 9.2 0.0 0.0
00:40 9.5 9.4 99 1019.3 3.8 W 9.2 0.0 0.0
00:43 9.5 9.4 99 1019.3 3.8 W 9.2 0.0 0.0
00:44 9.5 9.4 99 1019.3 4.5 NW 9.2 0.0 0.0
00:46 9.5 9.4 99 1019.3 4.5 W 9.2 0.0 0.0
00:47 9.5 9.4 99 1019.3 7.6 W 9.2 0.0 0.0
00:49 9.5 9.4 99 1019.2 6.9 NW 7.6 0.0 0.0
00:51 9.5 9.4 99 1019.3 7.6 W 8.3 0.0 0.0
00:53 9.5 9.4 99 1019.3 3.8 W 8.3 0.0 0.0
00:54 9.5 9.4 99 1019.3 4.5 WSW 8.3 0.0 0.0
00:56 9.5 9.4 99 1019.3 3.8 W 8.3 0.0 0.0
00:58 9.4 9.3 99 1019.2 3.8 W 8.3 0.0 0.0
01:00 9.5 9.4 99 1019.3 4.5 NW 8.3 0.0 0.0
01:01 9.5 9.4 99 1019.2 4.5 NW 7.6 0.0 0.0
01:04 9.5 9.4 99 1019.3 4.5 NW 5.4 0.0 0.0
01:05 9.4 9.3 99 1019.1 4.5 NW 5.4 0.0 0.0
01:08 9.4 9.3 99 1019.1 6.9 NW 6.9 0.0 0.0
01:10 9.5 9.4 99 1019.0 7.6 W 7.6 0.0 0.0
01:12 9.4 9.3 99 1019.1 5.4 NW 7.6 0.0 0.0
01:14 9.4 9.3 99 1019.1 4.5 NW 7.6 0.0 0.0
01:16 9.4 9.3 99 1019.2 6.0 W 7.6 0.0 0.0
01:18 9.4 9.3 99 1019.2 3.8 N 7.6 0.0 0.0
01:20 9.4 9.3 99 1019.2 6.0 W 6.9 0.0 0.0
01:22 9.4 9.3 99 1019.2 5.4 W 6.0 0.0 0.0
01:24 9.4 9.3 99 1019.1 6.9 W 6.9 0.0 0.0
01:25 9.4 9.3 99 1019.1 9.2 W 9.2 0.0 0.0
01:26 9.4 9.3 99 1019.1 7.6 W 9.2 0.0 0.0
01:28 9.4 9.3 99 1019.2 4.5 W 9.2 0.0 0.0
01:29 9.4 9.3 99 1019.3 5.4 W 9.2 0.0 0.0
01:30 9.4 9.3 99 1019.1 5.4 W 9.2 0.0 0.0
01:31 9.4 9.3 99 1019.2 6.0 W 9.2 0.0 0.0
01:32 9.4 9.3 99 1019.2 7.6 W 9.2 0.0 0.0
01:33 9.4 9.3 99 1019.2 6.0 W 9.2 0.0 0.0
01:35 9.4 9.3 99 1019.3 3.8 NW 9.2 0.0 0.0
01:36 9.4 9.3 99 1019.2 7.6 W 7.6 0.0 0.0
01:37 9.4 9.3 99 1019.2 5.4 NW 7.6 0.0 0.0
01:38 9.4 9.3 99 1019.3 4.5 NW 7.6 0.0 0.0
01:39 9.4 9.3 99 1019.3 6.9 W 7.6 0.0 0.0
01:41 9.4 9.3 99 1019.3 7.6 W 7.6 0.0 0.0
01:42 9.4 9.3 99 1019.3 7.6 W 7.6 0.0 0.0
01:43 9.4 9.3 99 1019.2 4.5 W 7.6 0.0 0.0
01:44 9.4 9.3 99 1019.2 6.9 W 7.6 0.0 0.0
01:45 9.4 9.3 99 1019.2 4.5 W 7.6 0.0 0.0
01:46 9.4 9.3 99 1019.1 9.8 NW 9.8 0.0 0.0
01:48 9.4 9.3 99 1019.1 6.0 NW 9.8 0.0 0.0
01:49 9.4 9.3 99 1019.2 5.4 W 9.8 0.0 0.0
01:50 9.4 9.3 99 1019.2 6.0 W 9.8 0.0 0.0
01:51 9.4 9.3 99 1019.2 5.4 WSW 9.8 0.0 0.0
01:53 9.4 9.3 99 1019.3 6.9 W 9.8 0.8 0.1
01:54 9.4 9.3 99 1019.2 5.4 W 9.8 0.8 0.1
01:55 9.4 9.3 99 1019.3 6.9 NW 9.8 0.8 0.1
01:56 9.4 9.3 99 1019.1 6.0 W 9.8 0.8 0.1
01:57 9.4 9.3 99 1019.2 9.8 NW 9.8 0.8 0.1
01:58 9.4 9.3 99 1019.3 6.0 W 9.8 0.0 0.1
01:59 9.4 9.3 99 1019.3 6.9 W 9.8 0.0 0.1
02:00 9.4 9.3 99 1019.4 6.9 W 9.8 0.0 0.1
02:01 9.4 9.3 99 1019.3 6.9 W 9.8 0.0 0.1
02:02 9.4 9.3 99 1019.3 6.9 W 9.8 0.0 0.1
02:04 9.4 9.3 99 1019.2 6.9 W 9.8 0.0 0.1
02:05 9.4 9.3 99 1019.3 9.2 W 9.8 0.0 0.1
02:06 9.4 9.3 99 1019.3 9.8 WSW 9.8 0.0 0.1
02:07 9.4 9.3 99 1019.2 6.0 NW 9.8 0.0 0.1
02:08 9.4 9.3 99 1019.2 4.5 W 9.8 0.0 0.1
02:09 9.4 9.3 99 1019.2 5.4 W 9.8 0.0 0.1
02:10 9.4 9.3 99 1019.3 6.9 W 9.8 0.0 0.1
02:11 9.4 9.3 99 1019.2 8.3 W 9.8 0.0 0.1
02:12 9.4 9.3 99 1019.2 8.3 W 9.8 0.0 0.1
02:13 9.4 9.3 99 1019.2 6.9 NW 9.8 0.0 0.1
02:14 9.4 9.3 99 1019.2 6.9 NW 9.8 0.0 0.1
02:16 9.4 9.3 99 1019.3 8.3 W 9.8 0.0 0.1
02:17 9.4 9.3 99 1019.2 9.8 W 9.8 0.0 0.1
02:18 9.4 9.3 99 1019.2 8.3 S 9.8 0.0 0.1
02:19 9.4 9.3 99 1019.3 6.0 NW 9.8 0.0 0.1
02:20 9.4 9.3 99 1019.1 6.9 W 9.8 0.0 0.1
02:21 9.4 9.3 99 1019.2 5.4 W 9.8 0.0 0.1
02:22 9.4 9.3 99 1019.2 7.6 WSW 9.8 0.0 0.1
02:23 9.4 9.3 99 1019.2 7.6 WSW 9.8 0.0 0.1
02:24 9.4 9.3 99 1019.1 7.6 W 9.8 0.0 0.1
02:25 9.4 9.3 99 1019.2 9.2 W 9.8 0.0 0.1
02:26 9.4 9.3 99 1019.2 8.3 W 9.8 0.0 0.1
02:27 9.4 9.3 99 1019.2 9.2 W 13.0 0.0 0.1
02:28 9.4 9.3 99 1019.2 6.9 W 13.0 0.0 0.1
02:29 9.4 9.3 99 1019.3 7.6 W 13.0 0.0 0.1
02:30 9.4 9.3 99 1019.2 8.3 WSW 13.0 0.0 0.1
02:31 9.4 9.3 99 1019.3 8.3 NW 13.0 0.0 0.1
02:32 9.5 9.4 99 1019.3 7.6 W 13.0 0.0 0.1
02:33 9.4 9.3 99 1019.2 6.0 WSW 13.0 0.0 0.1
02:34 9.4 9.3 99 1019.1 7.6 W 13.0 0.0 0.1
02:36 9.4 9.3 99 1019.2 5.4 NW 13.0 0.0 0.1
02:37 9.4 9.3 99 1019.3 6.9 W 13.0 0.0 0.1
02:38 9.4 9.3 99 1019.2 6.0 NW 9.8 0.0 0.1
02:39 9.4 9.3 99 1019.3 5.4 NW 9.8 0.0 0.1
02:40 9.4 9.3 99 1019.2 6.9 W 9.8 0.0 0.1
02:41 9.4 9.3 99 1019.1 4.5 NW 9.8 0.0 0.1
02:42 9.4 9.3 99 1019.2 9.2 W 9.8 0.0 0.1
02:43 9.4 9.3 99 1019.2 6.0 W 9.8 0.0 0.1
02:44 9.4 9.3 99 1019.1 6.0 W 9.8 0.0 0.1
02:45 9.4 9.3 99 1019.2 5.4 W 9.8 0.0 0.1
02:46 9.4 9.3 99 1019.3 6.0 W 9.2 0.0 0.1
02:47 9.4 9.3 99 1019.2 9.8 W 9.8 0.0 0.1
02:48 9.4 9.3 99 1019.1 8.3 W 9.8 0.0 0.1
02:49 9.4 9.3 99 1019.2 9.2 W 9.8 0.0 0.1
02:50 9.4 9.3 99 1019.1 8.3 W 9.8 0.0 0.1
02:51 9.4 9.3 99 1019.2 5.4 NW 9.8 0.0 0.1
02:52 9.4 9.3 99 1019.2 4.5 W 9.8 0.0 0.1
02:53 9.4 9.3 99 1019.2 3.8 WSW 9.8 0.0 0.1
02:54 9.4 9.3 99 1019.3 8.3 WSW 9.8 0.0 0.1
02:56 9.4 9.3 99 1019.1 6.0 W 9.8 0.0 0.1
02:57 9.4 9.3 99 1019.1 5.4 W 9.8 0.0 0.1
02:58 9.4 9.3 99 1019.2 5.4 WSW 9.2 0.0 0.1
02:59 9.4 9.3 99 1019.2 3.8 W 9.2 0.0 0.1
03:00 9.3 9.2 99 1019.1 7.6 W 8.3 0.0 0.1
03:01 9.3 9.2 99 1019.1 7.6 W 8.3 0.0 0.1
03:02 9.3 9.2 99 1019.1 7.6 W 8.3 0.0 0.1
03:03 9.3 9.2 99 1019.1 7.6 W 8.3 0.0 0.1
03:04 9.3 9.2 99 1019.1 7.6 W 8.3 0.0 0.1
03:05 9.4 9.3 99 1019.0 8.3 W 8.3 0.0 0.1
03:06 9.4 9.3 99 1019.0 8.3 NW 8.3 0.0 0.1
03:07 9.4 9.3 99 1019.0 5.4 W 8.3 0.0 0.1
03:08 9.4 9.3 99 1019.1 9.2 W 9.2 0.0 0.1
03:09 9.4 9.3 99 1019.0 10.7 W 10.7 0.0 0.1
03:10 9.3 9.2 99 1019.1 8.3 WSW 10.7 0.0 0.1
03:11 9.4 9.3 99 1019.0 8.3 W 10.7 0.0 0.1
03:13 9.3 9.2 99 1019.1 6.0 WSW 10.7 0.0 0.1
03:14 9.3 9.2 99 1019.1 8.3 NW 10.7 0.0 0.1
03:15 9.4 9.3 99 1019.1 9.2 W 10.7 0.0 0.1
03:16 9.4 9.3 99 1019.1 9.8 W 10.7 0.0 0.1
03:17 9.3 9.2 99 1019.1 7.6 W 10.7 0.0 0.1
03:18 9.4 9.3 99 1019.1 6.9 W 10.7 0.0 0.1
03:19 9.4 9.3 99 1019.1 6.9 W 10.7 0.0 0.1
03:20 9.3 9.2 99 1019.2 6.9 W 9.8 0.0 0.1
03:21 9.3 9.2 99 1019.0 8.3 NW 10.7 0.0 0.1
03:22 9.3 9.2 99 1019.1 9.8 W 10.7 0.0 0.1
03:23 9.3 9.2 99 1019.0 7.6 NW 10.7 0.0 0.1
03:24 9.3 9.2 99 1019.0 6.9 W 10.7 0.0 0.1
03:25 9.3 9.2 99 1019.3 6.9 W 10.7 0.0 0.1
03:26 9.3 9.2 99 1019.0 6.0 W 10.7 0.0 0.1
03:27 9.3 9.2 99 1019.1 9.2 W 10.7 0.0 0.1
03:28 9.3 9.2 99 1018.9 5.4 W 10.7 0.0 0.1
03:29 9.3 9.2 99 1019.0 4.5 NW 10.7 0.0 0.1
03:30 9.3 9.2 99 1019.1 6.9 W 10.7 0.0 0.1
03:31 9.3 9.2 99 1019.1 6.9 W 9.8 0.0 0.1
03:33 9.3 9.2 99 1019.0 6.9 W 9.8 0.0 0.1
03:34 9.3 9.2 99 1018.9 7.6 W 9.8 0.0 0.1
03:35 9.3 9.2 99 1019.1 6.9 W 9.8 0.0 0.1
03:36 9.3 9.2 99 1019.1 7.6 NW 9.8 0.0 0.1
03:37 9.3 9.2 99 1018.9 5.4 N 9.2 0.0 0.1
03:38 9.3 9.2 99 1019.1 6.9 W 9.2 0.0 0.1
03:39 9.3 9.2 99 1019.1 9.2 NW 9.2 0.0 0.1
03:40 9.3 9.2 99 1019.0 9.2 W 9.2 0.0 0.1
03:41 9.3 9.2 99 1019.0 8.3 NW 9.2 0.0 0.1
03:42 9.2 9.1 99 1019.0 5.4 W 9.2 0.0 0.1
03:44 9.3 9.2 99 1019.0 6.9 W 9.2 0.0 0.1
03:45 9.3 9.2 99 1019.1 6.0 W 9.2 0.0 0.1
03:46 9.3 9.2 99 1018.9 4.5 NW 9.2 0.0 0.1
03:47 9.2 9.1 99 1019.0 9.2 W 9.2 0.0 0.1
03:49 9.3 9.2 99 1018.9 8.3 W 9.2 0.0 0.1
03:50 9.2 9.1 99 1019.1 5.4 W 9.2 0.0 0.1
03:51 9.2 9.1 99 1018.9 6.9 W 9.2 0.0 0.1
03:53 9.2 9.1 99 1019.1 5.4 NW 9.2 0.0 0.1
03:54 9.3 9.2 99 1019.2 9.2 W 9.2 0.0 0.1
03:55 9.2 9.1 99 1018.9 6.9 W 9.2 0.0 0.1
03:56 9.2 9.1 99 1019.1 9.2 WSW 9.2 0.0 0.1
03:57 9.2 9.1 99 1019.1 6.9 WSW 9.2 0.0 0.1
03:58 9.2 9.1 99 1019.0 7.6 W 9.2 0.0 0.1
03:59 9.2 9.1 99 1019.1 8.3 W 9.2 0.0 0.1
04:00 9.2 9.1 99 1019.0 8.3 W 9.2 0.0 0.1
04:01 9.2 9.1 99 1019.1 8.3 W 9.2 0.0 0.1
04:02 9.2 9.1 99 1019.1 8.3 W 9.2 0.0 0.1
04:03 9.2 9.1 99 1019.2 8.3 W 9.2 0.0 0.1
04:04 9.2 9.1 99 1019.2 8.3 W 9.2 0.0 0.1
04:05 9.2 9.1 99 1019.2 6.9 NW 9.2 0.0 0.1
04:07 9.2 9.1 99 1019.0 7.6 W 9.2 0.0 0.1
04:08 9.2 9.1 99 1019.1 6.9 W 8.3 0.0 0.1
04:10 9.2 9.1 99 1019.2 5.4 W 8.3 0.0 0.1
04:11 9.2 9.1 99 1019.1 6.9 W 8.3 0.8 0.1
04:12 9.2 9.1 99 1019.1 6.9 NW 8.3 0.8 0.1
04:13 9.2 9.1 99 1019.1 6.9 W 8.3 0.8 0.1
04:14 9.2 9.1 99 1019.1 6.9 W 8.3 0.8 0.1
04:15 9.2 9.1 99 1019.1 9.2 W 9.2 0.8 0.1
04:16 9.2 9.1 99 1019.0 3.8 W 9.2 0.0 0.1
04:17 9.2 9.1 99 1019.1 3.8 W 9.2 0.0 0.1
04:18 9.2 9.1 99 1019.2 6.9 W 9.2 0.0 0.1
04:19 9.2 9.1 99 1019.1 8.3 W 9.2 0.0 0.1
04:20 9.2 9.1 99 1019.2 6.9 W 9.2 0.0 0.1
04:21 9.2 9.1 99 1019.1 3.8 W 9.2 0.0 0.1
04:22 9.2 9.1 99 1019.1 6.0 NW 9.2 0.0 0.1
04:24 9.2 9.1 99 1019.2 5.4 W 9.2 0.0 0.1
04:25 9.2 9.1 99 1019.0 9.2 W 9.2 0.0 0.1
04:26 9.2 9.1 99 1019.1 3.8 W 9.2 0.0 0.1
04:27 9.2 9.1 99 1019.2 4.5 W 9.2 0.0 0.1
04:28 9.2 9.1 99 1019.1 7.6 NW 9.2 0.0 0.1
04:29 9.2 9.1 99 1019.1 6.0 NW 9.2 0.0 0.1
04:30 9.2 9.1 99 1019.2 3.8 W 9.2 0.0 0.1
04:31 9.2 9.1 99 1019.1 6.9 W 9.2 0.0 0.1
04:32 9.2 9.1 99 1019.2 6.0 WSW 9.2 0.0 0.1
04:33 9.2 9.1 99 1019.2 6.9 W 9.2 0.0 0.1
04:34 9.2 9.1 99 1019.1 7.6 W 9.2 0.0 0.1
04:35 9.2 9.1 99 1019.2 6.9 W 7.6 0.0 0.1
04:36 9.2 9.1 99 1019.2 7.6 NW 7.6 0.0 0.1
04:37 9.2 9.1 99 1019.2 6.0 W 7.6 0.0 0.1
04:38 9.2 9.1 99 1019.2 6.0 W 7.6 0.0 0.1
04:39 9.1 9.0 99 1019.2 7.6 W 7.6 0.0 0.1
04:40 9.2 9.1 99 1019.1 6.9 W 7.6 0.0 0.1
04:41 9.2 9.1 99 1019.1 6.0 W 7.6 0.0 0.1
04:42 9.1 9.0 99 1019.0 4.5 W 7.6 0.0 0.1
04:44 9.2 9.1 99 1019.1 9.2 W 9.2 0.0 0.1
04:45 9.2 9.1 99 1019.1 7.6 NW 9.2 0.0 0.1
04:46 9.2 9.1 99 1019.1 4.5 W 9.2 0.0 0.1
04:47 9.2 9.1 99 1019.0 5.4 NW 9.2 0.0 0.1
04:48 9.2 9.1 99 1019.0 6.0 W 9.2 0.0 0.1
04:49 9.2 9.1 99 1019.0 6.9 W 9.2 0.0 0.1
04:50 9.2 9.1 99 1019.1 8.3 W 9.2 0.0 0.1
04:51 9.2 9.1 99 1019.2 9.2 NW 9.2 0.0 0.1
04:52 9.2 9.1 99 1019.1 7.6 NW 9.2 0.0 0.1
04:53 9.2 9.1 99 1019.1 8.3 NW 9.2 0.0 0.1
04:54 9.2 9.1 99 1019.1 5.4 NW 9.2 0.0 0.1
04:55 9.2 9.1 99 1019.2 8.3 W 9.2 0.0 0.1
04:56 9.2 9.1 99 1019.2 6.9 W 9.2 0.0 0.1
04:57 9.2 9.1 99 1019.2 3.8 W 9.2 0.0 0.1
04:58 9.2 9.1 99 1019.2 6.0 W 9.2 0.0 0.1
04:59 9.2 9.1 99 1019.2 5.4 W 9.2 0.0 0.1
05:00 9.2 9.1 99 1019.2 5.4 W 9.2 0.0 0.1
05:01 9.2 9.1 99 1019.2 5.4 W 8.3 0.0 0.1
05:03 9.2 9.1 99 1019.2 5.4 W 8.3 0.0 0.1
05:04 9.2 9.1 99 1019.3 5.4 W 8.3 0.0 0.1
05:05 9.2 9.1 99 1019.2 5.4 W 8.3 0.0 0.1
05:06 9.2 9.1 99 1019.2 7.6 W 7.6 0.0 0.1
05:07 9.2 9.1 99 1019.1 3.8 W 7.6 0.0 0.1
05:08 9.2 9.1 99 1019.2 6.9 W 7.6 0.0 0.1
05:09 9.2 9.1 99 1019.3 7.6 W 8.3 0.0 0.1
05:10 9.2 9.1 99 1019.2 7.6 W 8.3 0.0 0.1
05:11 9.2 9.1 99 1019.2 9.2 W 9.2 0.0 0.1
05:12 9.2 9.1 99 1019.2 3.8 W 9.2 0.0 0.1
05:13 9.2 9.1 99 1019.3 6.0 W 9.2 0.0 0.1
05:14 9.2 9.1 99 1019.2 3.8 WSW 9.2 0.0 0.1
05:15 9.2 9.1 99 1019.3 3.8 W 9.2 0.0 0.1
05:16 9.2 9.1 99 1019.2 9.2 W 9.2 0.0 0.1
05:17 9.2 9.1 99 1019.2 6.0 NW 9.2 0.0 0.1
05:18 9.2 9.1 99 1019.3 6.9 WSW 9.2 0.0 0.1
05:19 9.2 9.1 99 1019.2 6.9 W 9.2 0.0 0.1
05:21 9.2 9.1 99 1019.2 6.9 W 9.2 0.0 0.1
05:22 9.2 9.1 99 1019.2 6.0 W 9.2 0.0 0.1
05:23 9.2 9.1 99 1019.2 6.9 WSW 9.2 0.0 0.1
05:24 9.2 9.1 99 1019.0 5.4 W 9.2 0.0 0.1
05:25 9.2 9.1 99 1019.3 8.3 W 9.2 0.0 0.1
05:26 9.2 9.1 99 1019.2 6.0 NW 9.2 0.0 0.1
05:27 9.2 9.1 99 1019.3 6.9 W 8.3 0.0 0.1
05:28 9.2 9.1 99 1019.1 7.6 W 8.3 0.0 0.1
05:29 9.2 9.1 99 1019.2 9.8 NW 10.7 0.0 0.1
05:30 9.2 9.1 99 1019.2 9.2 W 10.7 0.0 0.1
05:31 9.2 9.1 99 1019.1 7.6 W 10.7 0.0 0.1
05:32 9.2 9.1 99 1019.2 6.9 W 10.7 0.0 0.1
05:33 9.2 9.1 99 1019.2 6.0 W 10.7 0.0 0.1
05:34 9.2 9.1 99 1019.2 6.9 NW 10.7 0.0 0.1
05:35 9.2 9.1 99 1019.2 7.6 W 10.7 0.0 0.1
05:36 9.2 9.1 99 1019.1 6.9 W 10.7 0.0 0.1
05:37 9.2 9.1 99 1019.1 7.6 W 10.7 0.0 0.1
05:39 9.2 9.1 99 1019.2 6.0 WSW 9.8 0.0 0.1
05:40 9.2 9.1 99 1019.1 8.3 NW 9.8 0.0 0.1
05:41 9.3 9.2 99 1019.2 6.9 W 9.8 0.0 0.1
05:42 9.2 9.1 99 1019.2 8.3 N 9.8 0.0 0.1
05:43 9.2 9.1 99 1019.3 8.3 NW 9.8 0.0 0.1
05:44 9.2 9.1 99 1019.2 8.3 NW 9.8 0.0 0.1
05:45 9.3 9.2 99 1019.2 9.8 NW 9.8 0.0 0.1
05:46 9.3 9.2 99 1019.2 6.9 W 9.8 0.0 0.1
05:47 9.2 9.1 99 1019.3 6.0 W 9.8 0.0 0.1
05:48 9.2 9.1 99 1019.3 8.3 W 9.8 0.0 0.1
05:49 9.3 9.2 99 1019.1 4.5 W 9.8 0.0 0.1
05:50 9.2 9.1 99 1019.2 6.9 W 9.8 0.0 0.1
05:51 9.3 9.2 99 1019.1 11.4 W 11.4 0.0 0.1
05:52 9.2 9.1 99 1019.3 9.2 W 11.4 0.0 0.1
05:53 9.2 9.1 99 1019.2 9.8 W 11.4 0.0 0.1
05:54 9.2 9.1 99 1019.2 6.0 W 11.4 0.0 0.1
05:56 9.2 9.1 99 1019.2 6.9 W 11.4 0.0 0.1
05:57 9.2 9.1 99 1019.3 9.2 W 11.4 0.0 0.1
05:58 9.2 9.1 99 1019.4 5.4 NW 11.4 0.0 0.1
05:59 9.2 9.1 99 1019.3 7.6 NW 11.4 0.0 0.1
06:00 9.2 9.1 99 1019.2 8.3 W 11.4 0.0 0.1
06:01 9.2 9.1 99 1019.3 8.3 W 11.4 0.0 0.1
06:02 9.2 9.1 99 1019.4 8.3 W 9.8 0.0 0.1
06:03 9.2 9.1 99 1019.3 8.3 W 9.8 0.0 0.1
06:04 9.2 9.1 99 1019.5 8.3 W 9.2 0.0 0.1
06:05 9.2 9.1 99 1019.3 6.9 NW 9.2 0.0 0.1
06:06 9.2 9.1 99 1019.3 9.8 NW 9.8 0.0 0.1
06:07 9.2 9.1 99 1019.4 6.9 NW 9.8 0.0 0.1
06:09 9.2 9.1 99 1019.4 6.0 W 9.8 0.0 0.1
06:11 9.1 9.0 99 1019.5 6.9 W 9.8 0.0 0.1
06:12 9.1 9.0 99 1019.5 5.4 NW 9.8 0.0 0.1
06:13 9.1 9.0 99 1019.5 8.3 W 9.8 0.0 0.1
06:14 9.1 9.0 99 1019.4 6.9 W 9.8 0.0 0.1
06:15 9.1 9.0 99 1019.4 5.4 NW 9.8 0.0 0.1
06:16 9.1 9.0 99 1019.4 6.0 NW 9.2 0.0 0.1
06:17 9.1 9.0 99 1019.4 7.6 NW 9.2 0.0 0.1
06:18 9.1 9.0 99 1019.3 9.8 NW 9.8 0.0 0.1
06:19 9.0 8.9 99 1019.4 4.5 NW 9.8 0.0 0.1
06:21 9.0 8.9 99 1019.3 8.3 W 9.8 0.0 0.1
06:22 9.0 8.9 99 1019.3 8.3 NW 9.8 0.0 0.1
06:23 9.0 8.9 99 1019.3 6.0 NW 9.8 0.0 0.1
06:24 9.0 8.9 99 1019.5 6.9 W 9.8 0.0 0.1
06:25 9.0 8.9 99 1019.3 6.0 NW 9.8 0.0 0.1
06:27 9.0 8.9 99 1019.4 9.2 NW 11.4 0.0 0.1
06:28 9.0 8.9 99 1019.3 7.6 W 11.4 0.0 0.1
06:29 9.0 8.9 99 1019.5 6.9 W 11.4 0.0 0.1
06:30 9.0 8.9 99 1019.5 6.9 W 11.4 0.0 0.1
06:31 9.0 8.9 99 1019.6 6.9 W 11.4 0.0 0.1
06:32 9.0 8.9 99 1019.5 6.9 W 11.4 0.0 0.1
06:33 9.0 8.9 99 1019.5 10.7 NW 11.4 0.0 0.1
06:34 9.0 8.9 99 1019.5 7.6 W 11.4 0.0 0.1
06:35 8.9 8.8 99 1019.6 11.4 NW 11.4 0.0 0.1
06:36 8.9 8.8 99 1019.6 11.4 NW 11.4 0.0 0.1
06:37 8.9 8.8 99 1019.4 8.3 W 11.4 0.0 0.1
06:38 9.0 8.9 99 1019.5 6.9 W 11.4 0.0 0.1
06:39 8.9 8.8 99 1019.5 5.4 W 11.4 0.0 0.1
06:41 8.9 8.8 99 1019.5 6.0 NW 11.4 0.0 0.1
06:42 8.9 8.8 99 1019.6 9.2 N 11.4 0.0 0.1
06:43 8.9 8.8 99 1019.6 7.6 W 11.4 0.0 0.1
06:44 8.9 8.8 99 1019.6 9.8 NW 11.4 0.0 0.1
06:45 8.9 8.8 99 1019.5 9.2 NW 11.4 0.0 0.1
06:46 8.9 8.8 99 1019.5 6.9 N 11.4 0.0 0.1
06:47 8.9 8.8 99 1019.5 6.9 NW 9.8 0.0 0.1
06:48 8.9 8.8 99 1019.6 6.9 W 9.8 0.0 0.1
06:49 8.9 8.8 99 1019.7 8.3 W 9.8 0.0 0.1
06:50 8.9 8.8 99 1019.6 7.6 W 9.8 0.0 0.1
06:51 8.8 8.7 99 1019.6 9.2 N 9.8 0.0 0.1
06:52 8.9 8.8 99 1019.5 10.7 W 10.7 0.0 0.1
06:53 8.9 8.8 99 1019.6 9.2 W 10.7 0.0 0.1
06:54 8.9 8.8 99 1019.6 11.4 NW 11.4 0.0 0.1
06:55 8.8 8.7 99 1019.4 9.8 W 11.4 0.0 0.1
06:56 8.8 8.7 99 1019.5 9.8 S 11.4 0.0 0.1
06:57 8.8 8.7 99 1019.5 10.7 W 11.4 0.0 0.1
06:58 8.8 8.7 99 1019.4 9.8 NW 11.4 0.0 0.1
06:59 8.8 8.7 99 1019.5 8.3 W 11.4 0.0 0.1
07:00 8.8 8.7 99 1019.6 8.3 W 11.4 0.0 0.1
07:01 8.8 8.7 99 1019.5 8.3 W 11.4 0.0 0.1
07:02 8.8 8.7 99 1019.6 8.3 W 11.4 0.0 0.1
07:03 8.8 8.7 99 1019.5 8.3 W 11.4 0.0 0.1
07:04 8.8 8.7 99 1019.5 8.3 W 11.4 0.0 0.1
07:06 8.8 8.7 99 1019.6 8.3 NW 10.7 0.0 0.1
07:07 8.8 8.7 99 1019.7 8.3 W 10.7 0.0 0.1
07:08 8.8 8.7 99 1019.6 10.7 W 10.7 0.0 0.1
07:09 8.8 8.7 99 1019.5 10.7 NW 10.7 0.0 0.1
07:10 8.8 8.7 99 1019.7 12.1 W 12.1 0.0 0.1
07:11 8.8 8.7 99 1019.6 9.8 W 12.1 0.0 0.1
07:12 8.8 8.7 99 1019.6 12.1 NW 12.1 0.0 0.1
07:13 8.7 8.6 99 1019.7 11.4 W 12.1 0.0 0.1
07:14 8.7 8.6 99 1019.6 9.2 W 12.1 0.0 0.1
07:15 8.7 8.6 99 1019.7 8.3 NW 12.1 0.0 0.1
07:16 8.8 8.7 99 1019.7 10.7 W 12.1 0.0 0.1
07:17 8.8 8.7 99 1019.7 13.6 NW 13.6 0.0 0.1
07:18 8.7 8.6 99 1019.7 11.4 W 13.6 0.0 0.1
07:19 8.7 8.6 99 1019.7 12.1 NW 13.6 0.0 0.1
07:20 8.7 8.6 99 1019.7 13.0 W 13.6 0.0 0.1
07:21 8.7 8.6 99 1019.7 11.4 W 13.6 0.0 0.1
07:22 8.7 8.6 99 1019.7 9.8 NW 13.6 0.0 0.1
07:23 8.7 8.6 99 1019.7 7.6 NW 13.6 0.0 0.1
07:24 8.7 8.6 99 1019.7 9.2 NW 13.6 0.0 0.1
07:25 8.8 8.7 99 1019.7 9.8 W 13.6 0.0 0.1
07:26 8.7 8.6 99 1019.7 13.0 W 13.6 0.0 0.1
07:27 8.7 8.6 99 1019.8 11.4 W 13.6 0.0 0.1
07:28 8.7 8.6 99 1019.7 10.7 NW 13.6 0.0 0.1
07:29 8.7 8.6 99 1019.6 12.1 NW 13.6 0.0 0.1
07:30 8.7 8.6 99 1019.7 11.4 NW 13.6 0.0 0.1
07:31 8.8 8.7 99 1019.6 9.8 NW 13.6 0.0 0.1
07:32 8.8 8.7 99 1019.6 12.1 W 13.6 0.0 0.1
07:33 8.8 8.7 99 1019.7 9.8 W 13.6 0.0 0.1
07:34 8.7 8.6 99 1019.7 10.7 NW 13.6 0.0 0.1
07:35 8.7 8.6 99 1019.7 11.4 W 13.0 0.0 0.1
07:36 8.7 8.6 99 1019.7 11.4 NW 13.0 0.0 0.1
07:37 8.7 8.6 99 1019.7 9.8 NW 12.1 0.0 0.1
07:38 8.7 8.6 99 1019.8 11.4 W 12.1 0.0 0.1
07:39 8.7 8.6 99 1019.7 7.6 NW 12.1 0.0 0.1
07:40 8.7 8.6 99 1019.7 9.8 NW 12.1 0.0 0.1
07:41 8.7 8.6 99 1019.7 13.0 NW 13.0 0.0 0.1
07:42 8.7 8.6 99 1019.7 9.2 NW 13.0 0.0 0.1
07:43 8.7 8.6 99 1019.7 10.7 NW 13.0 0.0 0.1
07:45 8.7 8.6 99 1019.7 12.1 W 13.0 0.0 0.1
07:47 8.6 8.5 99 1019.7 10.7 NW 13.0 0.0 0.1
07:49 8.7 8.6 99 1019.8 12.1 W 13.0 0.0 0.1
07:51 8.7 8.6 99 1019.8 9.8 NW 13.0 0.0 0.1
07:52 8.7 8.6 99 1019.8 10.7 WSW 13.0 0.8 0.2
07:53 8.7 8.6 99 1019.7 10.7 NW 13.6 0.8 0.2
07:55 8.6 8.5 99 1019.7 12.1 NW 13.6 0.8 0.2
07:56 8.6 8.5 99 1019.6 10.7 WSW 13.6 0.8 0.2
07:57 8.7 8.6 99 1019.8 9.8 W 13.6 0.0 0.2
07:58 8.7 8.6 99 1019.7 7.6 NW 13.6 0.0 0.2
07:59 8.6 8.5 99 1019.8 6.9 W 13.6 0.0 0.2
08:00 8.6 8.5 99 1019.7 6.9 W 13.6 0.0 0.2
08:01 8.6 8.5 99 1019.7 6.9 W 13.6 0.0 0.2
08:02 8.6 8.5 99 1019.7 6.9 W 12.1 0.0 0.2
08:03 8.6 8.5 99 1019.9 6.9 W 12.1 0.0 0.2
08:04 8.7 8.6 99 1019.7 15.2 SE 15.2 0.0 0.2
08:05 8.7 8.6 99 1019.8 11.4 W 15.2 0.0 0.2
08:06 8.7 8.6 99 1019.8 9.8 NW 15.2 0.0 0.2
08:07 8.7 8.6 99 1020.0 11.4 NW 15.2 0.0 0.2
08:09 8.7 8.6 99 1019.9 11.4 NW 15.2 0.0 0.2
08:10 8.7 8.6 99 1019.8 10.7 NW 15.2 0.0 0.2
08:12 8.7 8.6 99 1019.9 9.8 NW 15.2 0.0 0.2
08:13 8.7 8.6 99 1019.9 10.7 NW 15.2 0.0 0.2
08:14 8.6 8.5 99 1019.9 11.4 N 13.0 0.0 0.2
08:16 8.7 8.6 99 1019.9 13.0 W 13.0 0.0 0.2
08:17 8.6 8.5 99 1019.7 13.0 W 13.0 0.0 0.2
08:18 8.6 8.5 99 1019.9 13.0 W 13.0 0.0 0.2
08:19 8.7 8.6 99 1019.8 9.2 W 13.0 0.0 0.2
08:20 8.7 8.6 99 1019.7 12.1 NW 13.0 0.0 0.2
08:21 8.7 8.6 99 1019.9 8.3 NW 13.6 0.0 0.2
08:22 8.7 8.6 99 1019.8 7.6 NW 13.6 0.0 0.2
08:23 8.7 8.6 99 1019.8 7.6 W 13.6 0.0 0.2
08:24 8.7 8.6 99 1019.9 7.6 W 13.6 0.0 0.2
08:25 8.7 8.6 99 1020.0 10.7 W 13.6 0.0 0.2
08:26 8.7 8.6 99 1019.9 8.3 NW 13.6 0.0 0.2
08:27 8.7 8.6 99 1019.9 11.4 NW 13.6 0.0 0.2
08:28 8.7 8.6 99 1020.0 9.2 NW 13.6 0.0 0.2
08:29 8.7 8.6 99 1020.0 10.7 W 13.6 0.0 0.2
08:30 8.7 8.6 99 1020.1 7.6 W 13.6 0.0 0.2
08:31 8.7 8.6 99 1020.0 10.7 W 11.4 0.0 0.2
08:32 8.7 8.6 99 1020.1 12.1 NW 12.1 0.0 0.2
08:33 8.7 8.6 99 1020.0 7.6 W 12.1 0.0 0.2
08:34 8.7 8.6 99 1020.2 8.3 W 12.1 0.0 0.2
08:35 8.7 8.6 99 1020.0 7.6 W 12.1 0.0 0.2
08:36 8.7 8.6 99 1020.1 12.1 W 12.1 0.0 0.2
08:37 8.7 8.6 99 1020.1 9.2 W 12.1 0.0 0.2
08:38 8.7 8.6 99 1020.0 6.0 NW 12.1 0.0 0.2
08:39 8.7 8.6 99 1020.1 6.9 W 12.1 0.0 0.2
08:40 8.7 8.6 99 1020.0 11.4 NW 12.1 0.0 0.2
08:41 8.7 8.6 99 1020.1 9.8 W 12.1 0.0 0.2
08:42 8.7 8.6 99 1020.1 6.9 NW 12.1 0.0 0.2
08:43 8.7 8.6 99 1019.9 10.7 W 12.1 0.0 0.2
08:44 8.7 8.6 99 1019.9 12.1 N 12.1 0.0 0.2
08:45 8.7 8.6 99 1020.0 9.8 W 12.1 0.0 0.2
08:46 8.7 8.6 99 1020.0 9.8 W 12.1 0.0 0.2
08:47 8.7 8.6 99 1020.0 10.7 NW 12.1 0.0 0.2
08:48 8.7 8.6 99 1020.0 5.4 W 12.1 0.0 0.2
08:49 8.7 8.6 99 1020.0 7.6 NW 12.1 0.0 0.2
08:50 8.7 8.6 99 1020.0 9.2 NW 12.1 0.0 0.2
08:51 8.7 8.6 99 1019.9 8.3 NW 12.1 0.0 0.2
08:52 8.7 8.6 99 1020.0 10.7 NW 12.1 0.0 0.2
08:53 8.7 8.6 99 1020.1 8.3 NW 12.1 0.0 0.2
08:54 8.7 8.6 99 1020.1 6.9 W 12.1 0.0 0.2
08:55 8.7 8.6 99 1020.0 6.9 NW 10.7 0.0 0.2
08:56 8.7 8.6 99 1019.9 8.3 W 10.7 0.0 0.2
08:57 8.7 8.6 99 1019.8 10.7 W 10.7 0.0 0.2
08:59 8.7 8.6 99 1020.0 8.3 NW 10.7 0.0 0.2
09:00 8.7 8.6 99 1020.0 8.3 NW 10.7 0.0 0.2
09:01 8.7 8.6 99 1020.0 8.3 NW 10.7 0.0 0.2
09:02 8.7 8.6 99 1020.1 8.3 NW 10.7 0.0 0.2
09:04 8.7 8.6 99 1020.0 8.3 NW 10.7 0.0 0.2
09:05 8.7 8.6 99 1020.0 8.3 NW 10.7 0.0 0.2
09:06 8.7 8.6 99 1020.0 9.8 W 10.7 0.0 0.2
09:07 8.7 8.6 99 1020.0 9.2 NW 13.6 0.0 0.2
09:08 8.7 8.6 99 1020.0 8.3 NW 13.6 0.0 0.2
09:09 8.7 8.6 99 1020.0 8.3 W 13.6 0.0 0.2
09:10 8.7 8.6 99 1020.2 8.3 NW 13.6 0.0 0.2
09:11 8.7 8.6 99 1020.2 7.6 W 13.6 0.0 0.2
09:12 8.8 8.7 99 1020.0 8.3 W 13.6 0.0 0.2
09:13 8.7 8.6 99 1020.1 10.7 W 13.6 0.0 0.2
09:14 8.8 8.7 99 1020.1 10.7 NW 13.6 0.0 0.2
09:15 8.7 8.6 99 1020.0 12.1 W 13.6 0.0 0.2
09:16 8.7 8.6 99 1020.3 12.1 W 13.6 0.0 0.2
09:17 8.7 8.6 99 1020.2 8.3 W 12.1 0.0 0.2
09:18 8.7 8.6 99 1020.2 12.1 W 12.1 0.0 0.2
09:19 8.8 8.7 99 1020.2 11.4 NW 12.1 0.0 0.2
09:20 8.7 8.6 99 1020.3 11.4 NW 12.1 0.0 0.2
09:21 8.8 8.7 99 1020.3 6.9 NW 12.1 0.0 0.2
09:22 8.7 8.6 99 1020.2 5.4 W 12.1 0.0 0.2
09:23 8.7 8.6 99 1020.2 9.2 W 12.1 0.0 0.2
09:25 8.7 8.6 99 1020.2 10.7 NW 12.1 0.0 0.2
09:26 8.7 8.6 99 1020.2 10.7 W 12.1 0.0 0.2
09:27 8.7 8.6 99 1020.3 10.7 NW 14.5 0.0 0.2
09:28 8.7 8.6 99 1020.3 13.0 NW 14.5 0.0 0.2
09:29 8.7 8.6 99 1020.2 9.8 N 14.5 0.0 0.2
09:30 8.7 8.6 99 1020.3 9.2 W 14.5 0.0 0.2
09:31 8.8 8.7 99 1020.3 9.8 W 14.5 0.0 0.2
09:32 8.7 8.6 99 1020.2 9.8 NW 14.5 0.0 0.2
09:33 8.7 8.6 99 1020.2 6.9 NW 14.5 0.0 0.2
09:34 8.7 8.6 99 1020.3 8.3 NW 14.5 0.0 0.2
09:35 8.7 8.6 99 1020.3 8.3 W 14.5 0.0 0.2
09:36 8.7 8.6 99 1020.3 11.4 W 14.5 0.0 0.2
09:37 8.8 8.7 99 1020.3 9.8 NW 13.0 0.0 0.2
09:38 8.8 8.7 99 1020.3 9.8 W 13.0 0.0 0.2
09:39 8.8 8.7 99 1020.1 11.4 W 11.4 0.0 0.2
09:40 8.8 8.7 99 1020.2 9.8 W 11.4 0.0 0.2
09:41 8.8 8.7 99 1020.0 9.8 NW 11.4 0.0 0.2
09:42 8.8 8.7 99 1020.2 11.4 W 11.4 0.0 0.2
09:43 8.8 8.7 99 1020.3 9.2 W 11.4 0.0 0.2
09:44 8.8 8.7 99 1020.2 10.7 W 13.0 0.0 0.2
09:45 8.8 8.7 99 1020.3 6.0 W 13.0 0.0 0.2
09:47 8.8 8.7 99 1020.2 13.6 NW 13.6 0.0 0.2
09:48 8.8 8.7 99 1020.3 11.4 W 13.6 0.0 0.2
09:49 8.9 8.8 99 1020.1 9.2 NW 13.6 0.0 0.2
09:50 8.9 8.8 99 1020.2 12.1 NW 13.6 0.0 0.2
09:52 8.9 8.8 99 1020.2 10.7 NW 13.6 0.0 0.2
09:53 8.9 8.8 99 1020.2 7.6 W 13.6 0.0 0.2
09:54 8.9 8.8 99 1020.3 7.6 W 13.6 0.0 0.2
09:56 9.0 8.9 99 1020.3 6.9 W 13.6 0.0 0.2
09:59 9.0 8.9 99 1020.2 7.6 W 12.1 0.0 0.2
10:01 9.0 8.9 99 1020.2 6.9 NW 12.1 0.0 0.2
10:03 9.0 8.9 99 1020.2 6.9 NW 9.8 0.0 0.2
10:04 9.0 8.9 99 1020.1 6.9 NW 9.8 0.0 0.2
10:05 9.1 9.0 99 1020.3 8.3 W 9.2 0.0 0.2
10:06 9.2 9.1 99 1020.1 8.3 W 8.3 0.0 0.2
10:07 9.2 9.1 99 1020.2 7.6 W 8.3 0.0 0.2
10:09 9.1 9.0 99 1020.0 13.0 NW 13.0 0.0 0.2
10:11 9.1 9.0 99 1020.0 13.0 W 13.0 0.0 0.2
10:12 9.2 9.1 99 1020.2 6.9 W 13.0 0.0 0.2
10:14 9.2 9.1 99 1020.3 6.0 NW 13.0 0.0 0.2
10:16 9.2 9.1 99 1020.3 8.3 NW 13.0 0.0 0.2
10:18 9.2 9.1 99 1020.2 9.2 W 13.0 0.0 0.2
10:19 9.2 9.1 99 1020.2 10.7 W 13.6 0.0 0.2
10:21 9.2 9.1 99 1020.4 8.3 NW 13.6 0.0 0.2
10:23 9.2 9.1 99 1020.3 6.0 W 13.6 0.0 0.2
10:25 9.2 9.1 99 1020.3 8.3 W 13.6 0.0 0.2
10:26 9.2 9.1 99 1020.3 8.3 NW 13.6 0.0 0.2
10:27 9.2 9.1 99 1020.3 9.2 W 13.6 0.0 0.2
10:28 9.2 9.1 99 1020.3 6.0 NW 13.6 0.0 0.2
10:30 9.2 9.1 99 1020.3 7.6 W 9.2 0.0 0.2
10:31 9.3 9.2 99 1020.2 7.6 NW 9.2 0.0 0.2
10:32 9.3 9.2 99 1020.2 6.9 NW 9.2 0.0 0.2
10:33 9.3 9.2 99 1020.3 9.8 W 9.8 0.0 0.2
10:34 9.3 9.2 99 1020.2 8.3 W 9.8 0.0 0.2
10:35 9.4 9.3 99 1020.3 7.6 NW 9.8 0.0 0.2
10:36 9.5 9.4 99 1020.4 7.6 N 9.8 0.0 0.2
10:37 9.5 9.4 99 1020.4 8.3 NW 9.8 0.0 0.2
10:38 9.5 9.4 99 1020.3 7.6 W 9.8 0.0 0.2
10:39 9.6 9.5 99 1020.3 11.4 NW 11.4 0.0 0.2
10:40 9.6 9.5 99 1020.4 10.7 W 11.4 0.0 0.2
10:41 9.6 9.5 99 1020.3 10.7 W 11.4 0.0 0.2
10:42 9.6 9.5 99 1020.3 7.6 NW 11.4 0.0 0.2
10:43 9.6 9.5 99 1020.2 7.6 NW 11.4 0.0 0.2
10:44 9.7 9.6 99 1020.2 7.6 W 11.4 0.0 0.2
10:45 9.8 9.7 99 1020.3 8.3 WSW 11.4 0.0 0.2
10:46 9.8 9.7 99 1020.2 11.4 W 11.4 0.0 0.2
10:47 9.8 9.7 99 1020.1 12.1 NW 12.1 0.0 0.2
10:48 9.9 9.8 99 1020.3 9.2 W 12.1 0.0 0.2
10:49 9.9 9.8 99 1020.2 8.3 W 12.1 0.0 0.2
10:50 9.9 9.8 99 1020.3 11.4 NW 12.1 0.0 0.2
10:51 9.9 9.8 99 1020.2 8.3 W 12.1 0.0 0.2
10:52 9.9 9.8 99 1020.2 9.8 NW 12.1 0.0 0.2
10:53 9.9 9.8 99 1020.3 9.8 W 12.1 0.0 0.2
10:54 9.9 9.8 99 1020.2 10.7 W 12.1 0.0 0.2
10:55 9.9 9.8 99 1020.3 10.7 NW 12.1 0.0 0.2
10:56 9.8 9.7 99 1020.3 9.2 W 12.1 0.0 0.2
10:57 9.8 9.7 99 1020.4 9.8 WSW 11.4 0.0 0.2
10:58 9.8 9.7 99 1020.3 11.4 W 11.4 0.0 0.2
11:00 9.8 9.7 99 1020.4 8.3 WSW 11.4 0.0 0.2
11:01 9.8 9.7 99 1020.2 8.3 WSW 11.4 0.0 0.2
11:02 9.8 9.7 99 1020.3 8.3 WSW 11.4 0.0 0.2
11:03 9.8 9.7 99 1020.3 8.3 WSW 11.4 0.0 0.2
11:04 9.8 9.7 99 1020.5 8.3 WSW 11.4 0.0 0.2
11:05 9.8 9.7 99 1020.4 6.0 W 11.4 0.0 0.2
11:06 9.8 9.7 99 1020.4 5.4 W 11.4 0.0 0.2
11:07 9.8 9.7 99 1020.5 9.8 W 11.4 0.0 0.2
11:08 9.8 9.7 99 1020.4 6.9 W 11.4 0.0 0.2
11:09 9.8 9.7 99 1020.5 8.3 WSW 9.8 0.0 0.2
11:10 9.8 9.7 99 1020.4 9.2 NW 9.8 0.0 0.2
11:11 9.8 9.7 99 1020.5 9.2 W 9.8 0.0 0.2
11:12 9.7 9.6 99 1020.4 9.8 NW 9.8 0.0 0.2
11:13 9.8 9.7 99 1020.5 8.3 NW 9.8 0.0 0.2
11:14 9.7 9.6 99 1020.5 6.9 NW 9.8 0.0 0.2
11:15 9.8 9.7 99 1020.5 9.2 NW 9.8 0.0 0.2
11:16 9.7 9.6 99 1020.4 9.2 NW 9.8 0.0 0.2
11:17 9.8 9.7 99 1020.4 8.3 W 9.8 0.0 0.2
11:18 9.7 9.6 99 1020.5 11.4 W 11.4 0.0 0.2
11:19 9.8 9.7 99 1020.4 9.2 W 11.4 0.0 0.2
11:20 9.8 9.7 99 1020.5 6.0 NW 11.4 0.0 0.2
11:21 9.8 9.7 99 1020.4 8.3 NW 11.4 0.0 0.2
11:22 9.8 9.7 99 1020.4 6.0 W 11.4 0.0 0.2
11:23 9.8 9.7 99 1020.5 9.2 NW 11.4 0.0 0.2
11:24 9.9 9.8 99 1020.4 9.8 W 11.4 0.0 0.2
11:25 10.0 9.9 99 1020.4 11.4 W 11.4 0.0 0.2
11:26 10.0 9.9 99 1020.4 9.8 W 11.4 0.0 0.2
11:27 10.0 9.9 99 1020.4 7.6 NW 11.4 0.0 0.2
11:28 10.0 9.9 99 1020.4 7.6 W 11.4 0.0 0.2
11:29 10.1 10.0 99 1020.4 9.8 NW 11.4 0.0 0.2
11:30 10.1 10.0 99 1020.5 11.4 W 11.4 0.0 0.2
11:31 10.1 10.0 99 1020.5 6.9 NW 11.4 0.0 0.2
11:32 10.1 10.0 99 1020.5 9.2 W 11.4 0.0 0.2
11:33 10.2 10.1 99 1020.4 9.8 NW 11.4 0.0 0.2
11:35 10.2 10.1 99 1020.5 9.8 W 11.4 0.0 0.2
11:36 10.2 10.1 99 1020.6 6.9 NW 11.4 0.0 0.2
11:37 10.2 10.1 99 1020.5 8.3 W 11.4 0.0 0.2
11:38 10.2 10.1 99 1020.5 10.7 NW 11.4 0.0 0.2
11:39 10.3 10.2 99 1020.5 9.2 W 11.4 0.0 0.2
11:40 10.3 10.2 99 1020.5 11.4 W 11.4 0.0 0.2
11:41 10.4 10.3 99 1020.6 9.2 NW 11.4 0.0 0.2
11:42 10.4 10.3 99 1020.5 9.8 NW 11.4 0.0 0.2
11:43 10.5 10.4 99 1020.4 9.2 NW 11.4 0.0 0.2
11:44 10.5 10.4 99 1020.4 11.4 W 11.4 0.0 0.2
11:45 10.5 10.4 99 1020.5 8.3 NW 11.4 0.0 0.2
11:46 10.6 10.5 99 1020.5 11.4 NW 11.4 0.0 0.2
11:47 10.6 10.5 99 1020.6 9.2 NW 11.4 0.0 0.2
11:48 10.6 10.5 99 1020.4 13.0 NW 13.0 0.0 0.2
11:49 10.6 10.5 99 1020.5 7.6 W 13.0 0.0 0.2
11:50 10.6 10.5 99 1020.6 9.8 NW 13.0 0.0 0.2
11:51 10.6 10.5 99 1020.4 10.7 W 13.0 0.0 0.2
11:52 10.7 10.6 99 1020.4 9.2 W 13.0 0.0 0.2
11:53 10.7 10.6 99 1020.6 9.2 NW 13.0 0.0 0.2
11:54 10.8 10.7 99 1020.5 10.7 NW 13.0 0.0 0.2
11:55 10.8 10.7 99 1020.5 7.6 W 13.0 0.0 0.2
11:56 10.8 10.7 99 1020.5 9.2 W 13.0 0.0 0.2
11:57 10.8 10.7 99 1020.5 9.2 W 13.0 0.0 0.2
11:58 10.8 10.7 99 1020.4 8.3 W 10.7 0.0 0.2
11:59 10.8 10.7 99 1020.5 12.1 N 12.1 0.0 0.2
12:00 10.8 10.7 99 1020.6 13.0 NW 13.0 0.0 0.2
12:02 10.8 10.7 99 1020.6 13.0 NW 13.0 0.0 0.2
12:03 10.8 10.7 99 1020.5 13.0 NW 13.0 0.0 0.2
12:04 10.8 10.7 99 1020.6 13.0 NW 13.0 0.0 0.2
12:05 10.8 10.7 99 1020.4 13.0 NW 13.0 0.0 0.2
12:06 10.7 10.6 99 1020.5 6.0 W 13.0 0.0 0.2
12:07 10.6 10.5 99 1020.6 9.8 W 13.0 0.0 0.2
12:08 10.6 10.5 99 1020.6 7.6 W 13.0 0.0 0.2
12:09 10.6 10.5 99 1020.4 8.3 NW 13.0 0.0 0.2
12:10 10.6 10.5 99 1020.4 10.7 NW 13.0 0.0 0.2
12:12 10.6 10.5 99 1020.5 8.3 W 14.5 0.0 0.2
12:13 10.6 10.5 99 1020.4 11.4 W 14.5 0.0 0.2
12:15 10.6 10.5 99 1020.5 9.2 WSW 14.5 0.0 0.2
12:17 10.6 10.5 99 1020.5 9.8 W 14.5 0.0 0.2
12:18 10.6 10.5 99 1020.5 12.1 NW 14.5 0.0 0.2
12:19 10.6 10.5 99 1020.7 9.8 NW 14.5 0.0 0.2
12:20 10.6 10.5 99 1020.6 12.1 W 14.5 0.0 0.2
12:21 10.6 10.5 99 1020.7 11.4 W 12.1 0.0 0.2
12:22 10.7 10.6 99 1020.6 9.8 WSW 12.1 0.0 0.2
12:23 10.7 10.6 99 1020.6 6.9 W 12.1 0.0 0.2
12:24 10.7 10.6 99 1020.6 9.8 NW 12.1 0.0 0.2
12:25 10.7 10.6 99 1020.5 9.8 N 12.1 0.0 0.2
12:26 10.7 10.6 99 1020.7 9.2 NW 12.1 0.0 0.2
12:27 10.6 10.5 99 1020.7 10.7 NW 12.1 0.0 0.2
12:29 10.7 10.6 99 1020.6 12.1 W 12.1 0.0 0.2
12:31 10.6 10.5 99 1020.8 6.9 W 12.1 0.0 0.2
12:32 10.6 10.5 99 1020.7 9.2 NW 12.1 0.8 0.3
12:33 10.6 10.5 99 1020.6 8.3 W 12.1 0.8 0.3
12:34 10.6 10.5 99 1020.5 9.8 W 12.1 0.8 0.3
12:36 10.6 10.5 99 1020.5 11.4 W 12.1 0.8 0.3
12:37 10.6 10.5 99 1020.7 10.7 W 12.1 0.0 0.3
12:39 10.6 10.5 99 1020.6 9.8 W 12.1 0.0 0.3
12:40 10.6 10.5 99 1020.6 9.8 W 12.1 0.0 0.3
12:41 10.6 10.5 99 1020.6 12.1 W 12.1 0.0 0.3
12:43 10.6 10.5 99 1020.6 8.3 W 12.1 0.0 0.3
12:44 10.6 10.5 99 1020.5 10.7 W 12.1 0.0 0.3
12:45 10.6 10.5 99 1020.6 9.8 N 12.1 0.0 0.3
12:46 10.6 10.5 99 1020.7 7.6 W 12.1 0.0 0.3
12:47 10.6 10.5 99 1020.6 7.6 W 12.1 0.0 0.3
12:49 10.6 10.5 99 1020.5 8.3 N 12.1 0.0 0.3
12:50 10.5 10.4 99 1020.5 6.9 N 12.1 0.0 0.3
12:51 10.6 10.5 99 1020.4 11.4 WNW 12.1 0.0 0.3
12:52 10.5 10.4 99 1020.6 11.4 NW 12.1 0.0 0.3
12:53 10.5 10.4 99 1020.6 9.2 W 12.1 0.0 0.3
12:54 10.5 10.4 99 1020.7 11.4 NW 11.4 0.0 0.3
12:55 10.5 10.4 99 1020.6 9.2 NW 11.4 0.0 0.3
12:57 10.5 10.4 99 1020.5 11.4 W 11.4 0.0 0.3
12:58 10.5 10.4 99 1020.6 13.0 NW 13.0 0.0 0.3
12:59 10.5 10.4 99 1020.4 9.2 NW 13.0 0.0 0.3
13:00 10.5 10.4 99 1020.5 9.2 W 13.0 0.0 0.3
13:01 10.5 10.4 99 1020.5 9.2 W 13.0 0.0 0.3
13:02 10.5 10.4 99 1020.4 9.2 W 13.0 0.0 0.3
13:03 10.5 10.4 99 1020.5 9.2 W 13.0 0.0 0.3
13:04 10.5 10.4 99 1020.6 9.2 W 13.0 0.0 0.3
13:05 10.4 10.3 99 1020.4 7.6 W 13.0 0.0 0.3
13:06 10.4 10.3 99 1020.4 10.7 W 13.0 0.0 0.3
13:07 10.5 10.4 99 1020.4 8.3 NW 13.0 0.0 0.3
13:08 10.4 10.3 99 1020.3 8.3 N 11.4 0.0 0.3
13:09 10.4 10.3 99 1020.3 8.3 NW 11.4 0.0 0.3
13:10 10.5 10.4 99 1020.3 10.7 W 11.4 0.0 0.3
13:11 10.5 10.4 99 1020.4 10.7 W 11.4 0.0 0.3
13:12 10.5 10.4 99 1020.3 6.9 W 11.4 0.0 0.3
13:13 10.5 10.4 99 1020.3 9.2 W 11.4 0.0 0.3
13:14 10.5 10.4 99 1020.3 10.7 W 11.4 0.0 0.3
13:15 10.5 10.4 99 1020.2 9.8 W 11.4 0.0 0.3
13:16 10.5 10.4 99 1020.4 12.1 NW 12.1 0.0 0.3
13:17 10.5 10.4 99 1020.3 9.8 WSW 12.1 0.0 0.3
13:18 10.5 10.4 99 1020.3 10.7 NNW 12.1 0.0 0.3
13:19 10.5 10.4 99 1020.3 10.7 W 12.1 0.0 0.3
13:20 10.5 10.4 99 1020.4 9.2 W 12.1 0.0 0.3
13:21 10.5 10.4 99 1020.4 8.3 NW 12.1 0.0 0.3
13:22 10.5 10.4 99 1020.3 8.3 WSW 12.1 0.0 0.3
13:23 10.5 10.4 99 1020.3 10.7 W 12.1 0.0 0.3
13:24 10.5 10.4 99 1020.4 8.3 W 12.1 0.0 0.3
13:25 10.5 10.4 99 1020.4 10.7 W 12.1 0.0 0.3
13:26 10.5 10.4 99 1020.4 7.6 W 12.1 0.0 0.3
13:28 10.5 10.4 99 1020.5 10.7 W 10.7 0.0 0.3
13:29 10.4 10.3 99 1020.4 8.3 NW 10.7 0.0 0.3
13:30 10.4 10.3 99 1020.5 10.7 NW 10.7 0.0 0.3
13:31 10.4 10.3 99 1020.4 6.0 NW 10.7 0.0 0.3
13:32 10.4 10.3 99 1020.6 5.4 NW 10.7 0.0 0.3
13:33 10.5 10.4 99 1020.5 9.8 W 10.7 0.0 0.3
13:34 10.5 10.4 99 1020.4 9.2 NW 10.7 0.0 0.3
13:35 10.5 10.4 99 1020.5 9.8 NW 10.7 0.0 0.3
13:36 10.5 10.4 99 1020.6 8.3 NW 10.7 0.0 0.3
13:37 10.5 10.4 99 1020.5 14.5 NW 14.5 0.0 0.3
13:38 10.5 10.4 99 1020.4 9.8 W 14.5 0.0 0.3
13:39 10.5 10.4 99 1020.4 9.2 NW 14.5 0.0 0.3
13:40 10.5 10.4 99 1020.3 9.2 NW 14.5 0.0 0.3
13:41 10.5 10.4 99 1020.5 6.9 NW 14.5 0.0 0.3
13:42 10.5 10.4 99 1020.5 6.9 NW 14.5 0.0 0.3
13:43 10.6 10.5 99 1020.4 12.1 NW 14.5 0.0 0.3
13:44 10.6 10.5 99 1020.4 9.2 NW 14.5 0.0 0.3
13:45 10.6 10.5 99 1020.4 7.6 NW 14.5 0.0 0.3
13:46 10.6 10.5 99 1020.4 12.1 WSW 14.5 0.0 0.3
13:47 10.6 10.5 99 1020.4 9.8 W 12.1 0.0 0.3
13:48 10.6 10.5 99 1020.5 7.6 NW 12.1 0.0 0.3
13:49 10.6 10.5 99 1020.3 8.3 N 12.1 0.0 0.3
13:50 10.6 10.5 99 1020.3 9.2 W 12.1 0.0 0.3
13:52 10.6 10.5 99 1020.2 7.6 W 12.1 0.0 0.3
13:53 10.6 10.5 99 1020.4 12.1 NW 12.1 0.0 0.3
13:54 10.6 10.5 99 1020.2 9.8 W 12.1 0.0 0.3
13:55 10.6 10.5 99 1020.2 12.1 NW 12.1 0.0 0.3
13:56 10.6 10.5 99 1020.4 9.8 W 12.1 0.0 0.3
13:57 10.6 10.5 99 1020.2 6.0 NW 12.1 0.0 0.3
13:58 10.6 10.5 99 1020.4 11.4 W 12.1 0.0 0.3
13:59 10.6 10.5 99 1020.4 8.3 W 12.1 0.0 0.3
14:00 10.6 10.5 99 1020.4 9.2 W 12.1 0.0 0.3
14:01 10.6 10.5 99 1020.4 9.2 W 12.1 0.0 0.3
14:02 10.6 10.5 99 1020.4 9.2 W 12.1 0.0 0.3
14:03 10.6 10.5 99 1020.5 9.2 W 12.1 0.0 0.3
14:04 10.6 10.5 99 1020.4 9.2 W 12.1 0.0 0.3
14:05 10.6 10.5 99 1020.2 10.7 NW 11.4 0.0 0.3
14:06 10.6 10.5 99 1020.3 9.8 W 11.4 0.0 0.3
14:07 10.6 10.5 99 1020.4 12.1 W 12.1 0.0 0.3
14:08 10.7 10.6 99 1020.4 6.9 W 12.1 0.0 0.3
14:09 10.6 10.5 99 1020.2 9.2 W 12.1 0.0 0.3
14:11 10.7 10.6 99 1020.4 9.8 NW 12.1 0.0 0.3
14:12 10.6 10.5 99 1020.2 11.4 NW 12.1 0.0 0.3
14:14 10.6 10.5 99 1020.3 9.2 W 12.1 0.0 0.3
14:15 10.7 10.6 99 1020.2 7.6 NW 12.1 0.0 0.3
14:17 10.6 10.5 99 1020.3 12.1 W 12.1 0.0 0.3
14:18 10.6 10.5 99 1020.3 10.7 W 12.1 0.0 0.3
14:19 10.6 10.5 99 1020.3 8.3 W 12.1 0.0 0.3
14:20 10.6 10.5 99 1020.3 4.5 W 12.1 0.0 0.3
14:21 10.6 10.5 99 1020.2 8.3 W 12.1 0.0 0.3
14:22 10.6 10.5 99 1020.1 12.1 W 12.1 0.0 0.3
14:24 10.6 10.5 99 1020.2 11.4 W 13.6 0.0 0.3
14:25 10.6 10.5 99 1020.1 8.3 W 13.6 0.0 0.3
14:26 10.6 10.5 99 1020.3 6.9 WNW 13.6 0.0 0.3
14:27 10.5 10.4 99 1020.1 12.1 W 13.6 0.0 0.3
14:28 10.5 10.4 99 1020.2 9.2 NW 13.6 0.0 0.3
14:29 10.5 10.4 99 1020.2 9.2 NW 13.6 0.0 0.3
14:30 10.5 10.4 99 1020.3 8.3 NW 13.6 0.0 0.3
14:31 10.5 10.4 99 1020.2 9.2 NW 13.6 0.0 0.3
14:32 10.5 10.4 99 1020.2 6.9 NW 13.6 0.0 0.3
14:33 10.5 10.4 99 1020.2 9.2 NW 13.6 0.0 0.3
14:34 10.5 10.4 99 1020.2 6.9 W 12.1 0.0 0.3
14:35 10.5 10.4 99 1020.2 9.8 W 12.1 0.0 0.3
14:36 10.5 10.4 99 1020.3 9.2 W 12.1 0.0 0.3
14:37 10.5 10.4 99 1020.1 11.4 NW 12.1 0.0 0.3
14:38 10.5 10.4 99 1020.2 9.2 NW 11.4 0.0 0.3
14:39 10.5 10.4 99 1020.0 11.4 W 13.0 0.0 0.3
14:40 10.5 10.4 99 1020.2 6.9 W 13.0 0.0 0.3
14:41 10.5 10.4 99 1020.1 7.6 W 13.0 0.0 0.3
14:42 10.5 10.4 99 1020.1 9.8 NW 13.0 0.0 0.3
14:43 10.5 10.4 99 1020.4 13.0 NW 13.0 0.0 0.3
14:44 10.5 10.4 99 1020.3 11.4 NW 13.0 0.0 0.3
14:45 10.5 10.4 99 1020.2 10.7 W 13.0 0.0 0.3
14:46 10.5 10.4 99 1020.3 9.8 NW 13.0 0.0 0.3
14:47 10.6 10.5 99 1020.2 9.2 NW 13.0 0.0 0.3
14:48 10.5 10.4 99 1020.2 10.7 N 13.0 0.0 0.3
14:49 10.6 10.5 99 1020.2 7.6 W 13.0 0.0 0.3
14:50 10.6 10.5 99 1020.2 4.5 NW 13.0 0.0 0.3
14:51 10.6 10.5 99 1020.2 9.2 W 13.0 0.0 0.3
14:52 10.6 10.5 99 1020.1 7.6 W 13.0 0.0 0.3
14:53 10.7 10.6 99 1020.2 12.1 NW 12.1 0.0 0.3
14:54 10.7 10.6 99 1020.2 11.4 W 12.1 0.0 0.3
14:56 10.7 10.6 99 1020.1 12.1 W 12.1 0.0 0.3
14:57 10.7 10.6 99 1020.1 10.7 NW 12.1 0.0 0.3
14:58 10.7 10.6 99 1020.1 11.4 NW 12.1 0.0 0.3
14:59 10.7 10.6 99 1020.2 8.3 W 12.1 0.0 0.3
15:00 10.7 10.6 99 1020.1 9.8 W 12.1 0.0 0.3
15:01 10.7 10.6 99 1020.1 9.8 W 12.1 0.0 0.3
15:02 10.7 10.6 99 1020.2 9.8 W 12.1 0.0 0.3
15:03 10.7 10.6 99 1020.1 9.8 W 12.1 0.0 0.3
15:04 10.7 10.6 99 1020.2 9.8 W 12.1 0.0 0.3
15:05 10.7 10.6 99 1020.1 9.8 W 12.1 0.0 0.3
15:06 10.6 10.5 99 1020.2 13.6 NW 13.6 0.0 0.3
15:07 10.6 10.5 99 1020.2 13.6 W 13.6 0.0 0.3
15:08 10.6 10.5 99 1020.1 12.1 NW 13.6 0.0 0.3
15:09 10.6 10.5 99 1020.1 15.9 W 15.9 0.0 0.3
15:10 10.6 10.5 99 1020.1 13.0 W 15.9 0.0 0.3
15:11 10.5 10.4 99 1020.2 11.4 NW 15.9 0.0 0.3
15:12 10.5 10.4 99 1020.1 11.4 W 15.9 0.0 0.3
15:13 10.5 10.4 99 1020.1 10.7 W 15.9 0.0 0.3
15:14 10.5 10.4 99 1020.2 11.4 W 15.9 0.0 0.3
15:15 10.5 10.4 99 1020.1 13.6 W 15.9 0.0 0.3
15:16 10.4 10.3 99 1020.2 9.8 W 15.9 0.0 0.3
15:17 10.4 10.3 99 1020.1 9.8 NW 15.9 0.0 0.3
15:18 10.4 10.3 99 1020.2 9.2 W 15.9 0.0 0.3
15:19 10.4 10.3 99 1020.2 7.6 W 15.9 0.0 0.3
15:20 10.4 10.3 99 1020.2 10.7 NW 13.6 0.0 0.3
15:21 10.3 10.2 99 1020.2 11.4 NW 13.6 0.0 0.3
15:23 10.3 10.2 99 1020.2 9.8 NW 13.6 0.0 0.3
15:24 10.3 10.2 99 1020.2 9.8 S 13.6 0.0 0.3
15:25 10.3 10.2 99 1020.3 10.7 W 13.6 0.0 0.3
15:26 10.2 10.1 99 1020.0 16.8 NW 16.8 0.0 0.3
15:27 10.3 10.2 99 1020.2 15.2 NW 16.8 0.0 0.3
15:28 10.2 10.1 99 1020.3 11.4 NW 16.8 0.0 0.3
15:29 10.2 10.1 99 1020.2 11.4 W 16.8 0.0 0.3
15:30 10.2 10.1 99 1020.3 13.0 NW 16.8 0.0 0.3
15:31 10.2 10.1 99 1020.2 12.1 NW 16.8 0.0 0.3
15:32 10.2 10.1 99 1020.2 13.6 W 16.8 0.0 0.3
15:33 10.1 10.0 99 1020.2 10.7 W 16.8 0.0 0.3
15:34 10.1 10.0 99 1020.3 7.6 N 16.8 0.0 0.3
15:35 10.1 10.0 99 1020.2 10.7 NW 16.8 0.0 0.3
15:36 10.1 10.0 99 1020.2 10.7 W 15.2 0.0 0.3
15:38 10.1 10.0 99 1020.2 11.4 W 13.6 0.0 0.3
15:40 10.1 10.0 99 1020.1 13.0 NW 13.6 0.0 0.3
15:41 10.1 10.0 99 1020.1 10.7 W 13.6 0.0 0.3
15:42 10.1 10.0 99 1020.2 9.8 W 13.6 0.0 0.3
15:43 10.1 10.0 99 1020.2 10.7 W 13.0 0.0 0.3
15:44 10.1 10.0 99 1020.3 10.7 W 13.0 0.0 0.3
15:45 10.1 10.0 99 1020.3 8.3 NW 13.0 0.0 0.3
15:46 10.1 10.0 99 1020.0 7.6 NW 13.0 0.0 0.3
15:47 10.1 10.0 99 1020.0 6.9 NW 13.0 0.0 0.3
15:48 10.1 10.0 99 1020.1 9.2 NW 13.0 0.0 0.3
15:49 10.1 10.0 99 1020.1 10.7 W 13.0 0.0 0.3
15:50 10.1 10.0 99 1020.1 12.1 NW 12.1 0.0 0.3
15:51 10.1 10.0 99 1020.2 10.7 W 12.1 0.0 0.3
15:52 10.1 10.0 99 1020.1 13.0 NNW 13.0 0.0 0.3
15:54 10.1 10.0 99 1020.2 8.3 W 13.0 0.0 0.3
15:55 10.1 10.0 99 1020.2 6.9 NW 13.0 0.0 0.3
15:56 10.1 10.0 99 1020.3 12.1 W 13.0 0.0 0.3
15:57 10.1 10.0 99 1020.1 13.0 NW 13.0 0.0 0.3
15:58 10.1 10.0 99 1020.2 12.1 W 13.0 0.0 0.3
15:59 10.1 10.0 99 1020.2 7.6 W 13.0 0.0 0.3
16:00 10.1 10.0 99 1020.2 8.3 NW 13.0 0.0 0.3
16:01 10.1 10.0 99 1020.1 8.3 NW 13.0 0.0 0.3
16:02 10.2 10.1 99 1020.2 10.7 NW 13.0 0.0 0.3
16:03 10.1 10.0 99 1020.3 9.8 W 13.0 0.0 0.3
16:04 10.1 10.0 99 1020.2 9.2 WSW 13.0 0.0 0.3
16:05 10.1 10.0 99 1020.2 10.7 W 13.0 0.0 0.3
16:06 10.1 10.0 99 1020.2 9.8 W 13.0 0.0 0.3
16:08 10.1 10.0 99 1020.3 9.2 W 12.1 0.0 0.3
16:09 10.1 10.0 99 1020.2 6.0 NW 10.7 0.0 0.3
16:10 10.1 10.0 99 1020.2 7.6 NW 10.7 0.0 0.3
16:11 10.1 10.0 99 1020.1 9.2 W 10.7 0.0 0.3
16:13 10.2 10.1 99 1020.3 5.4 W 10.7 0.0 0.3
16:14 10.2 10.1 99 1020.2 11.4 W 11.4 0.0 0.3
16:16 10.1 10.0 99 1020.2 8.3 W 11.4 0.0 0.3
16:17 10.2 10.1 99 1020.2 11.4 NW 11.4 0.0 0.3
16:19 10.2 10.1 99 1020.2 10.7 W 11.4 0.0 0.3
16:20 10.2 10.1 99 1020.2 7.6 NW 11.4 0.0 0.3
16:21 10.2 10.1 99 1020.4 8.3 NW 11.4 0.0 0.3
16:22 10.1 10.0 99 1020.2 9.8 NW 11.4 0.0 0.3
16:23 10.2 10.1 99 1020.2 11.4 NW 12.1 0.0 0.3
16:24 10.2 10.1 99 1020.2 11.4 W 12.1 0.0 0.3
16:25 10.2 10.1 99 1020.2 9.8 W 12.1 0.0 0.3
16:27 10.2 10.1 99 1020.3 6.9 W 12.1 0.0 0.3
16:28 10.2 10.1 99 1020.2 9.2 W 12.1 0.0 0.3
16:29 10.2 10.1 99 1020.2 11.4 NW 12.1 0.0 0.3
16:30 10.2 10.1 99 1020.1 9.8 W 12.1 0.0 0.3
16:31 10.2 10.1 99 1020.2 9.2 NW 12.1 0.0 0.3
16:32 10.2 10.1 99 1020.2 9.2 NW 12.1 0.0 0.3
16:33 10.2 10.1 99 1020.2 7.6 W 12.1 0.0 0.3
16:34 10.2 10.1 99 1020.3 7.6 NW 12.1 0.0 0.3
16:35 10.2 10.1 99 1020.3 9.2 NW 12.1 0.0 0.3
16:36 10.2 10.1 99 1020.2 10.7 W 12.1 0.0 0.3
16:38 10.2 10.1 99 1020.2 9.2 W 13.0 0.0 0.3
16:39 10.2 10.1 99 1020.2 13.0 W 13.0 0.0 0.3
16:40 10.2 10.1 99 1020.2 10.7 WSW 13.0 0.0 0.3
16:41 10.2 10.1 99 1020.3 6.9 W 13.0 0.0 0.3
16:42 10.1 10.0 99 1020.2 6.0 W 13.0 0.0 0.3
16:43 10.1 10.0 99 1020.3 12.1 S 13.6 0.0 0.3
16:44 10.1 10.0 99 1020.2 7.6 W 13.6 0.0 0.3
16:45 10.1 10.0 99 1020.1 10.7 NW 13.6 0.0 0.3
16:46 10.1 10.0 99 1020.2 10.7 W 13.6 0.0 0.3
16:47 10.1 10.0 99 1020.2 13.0 NW 13.6 0.0 0.3
16:48 10.1 10.0 99 1020.2 9.8 N 13.6 0.0 0.3
16:49 10.1 10.0 99 1020.2 6.0 NW 13.6 0.0 0.3
16:50 10.0 9.9 99 1020.2 11.4 NW 13.6 0.0 0.3
16:51 10.1 10.0 99 1020.3 12.1 S 13.6 0.0 0.3
16:53 10.0 9.9 99 1020.2 9.8 NW 13.6 0.0 0.3
16:54 10.1 10.0 99 1020.2 11.4 W 13.0 0.0 0.3
16:55 10.1 10.0 99 1020.2 10.7 NW 13.0 0.0 0.3
16:56 10.0 9.9 99 1020.2 9.8 W 13.0 0.0 0.3
16:57 10.0 9.9 99 1020.2 7.6 NW 13.0 0.0 0.3
16:58 10.0 9.9 99 1020.3 13.0 W 13.0 0.0 0.3
16:59 10.0 9.9 99 1020.3 10.7 W 13.0 0.0 0.3
17:00 10.0 9.9 99 1020.3 9.2 W 13.0 0.0 0.3
17:01 10.0 9.9 99 1020.2 9.2 W 13.0 0.0 0.3
17:02 10.0 9.9 99 1020.4 9.2 W 13.0 0.0 0.3
17:03 10.0 9.9 99 1020.3 9.2 W 13.0 0.0 0.3
17:04 10.0 9.9 99 1020.4 9.2 W 13.0 0.0 0.3
17:05 10.0 9.9 99 1020.3 8.3 N 13.0 0.0 0.3
17:06 10.0 9.9 99 1020.2 7.6 NW 13.0 0.0 0.3
17:07 9.9 9.8 99 1020.3 14.5 NW 14.5 0.0 0.3
17:08 9.9 9.8 99 1020.2 14.5 W 14.5 0.0 0.3
17:09 9.9 9.8 99 1020.3 13.6 W 14.5 0.0 0.3
17:11 9.9 9.8 99 1020.3 10.7 W 14.5 0.0 0.3
17:12 9.9 9.8 99 1020.4 12.1 NW 14.5 0.0 0.3
17:13 9.8 9.7 99 1020.4 12.1 S 14.5 0.0 0.3
17:14 9.8 9.7 99 1020.2 9.8 W 14.5 0.0 0.3
17:15 9.8 9.7 99 1020.3 11.4 W 14.5 0.0 0.3
17:17 9.8 9.7 99 1020.4 6.9 NW 14.5 0.0 0.3
17:18 9.8 9.7 99 1020.3 10.7 NW 14.5 0.0 0.3
17:19 9.8 9.7 99 1020.3 9.2 NW 14.5 0.0 0.3
17:20 9.8 9.7 99 1020.3 8.3 W 14.5 0.0 0.3
17:21 9.8 9.7 99 1020.4 9.2 W 14.5 0.0 0.3
17:22 9.8 9.7 99 1020.5 9.2 W 12.1 0.0 0.3
17:23 9.7 9.6 99 1020.5 11.4 W 12.1 0.0 0.3
17:24 9.7 9.6 99 1020.5 8.3 W 12.1 0.0 0.3
17:25 9.7 9.6 99 1020.5 7.6 W 12.1 0.0 0.3
17:26 9.7 9.6 99 1020.5 13.0 W 13.0 0.0 0.3
17:27 9.7 9.6 99 1020.5 9.8 NW 13.0 0.0 0.3
17:28 9.7 9.6 99 1020.4 12.1 N 13.0 0.0 0.3
17:30 9.7 9.6 99 1020.5 13.6 W 13.6 0.0 0.3
17:31 9.7 9.6 99 1020.4 14.5 W 14.5 0.0 0.3
17:32 9.7 9.6 99 1020.5 9.8 W 14.5 0.0 0.3
17:33 9.7 9.6 99 1020.5 6.9 NW 14.5 0.0 0.3
17:34 9.6 9.5 99 1020.4 9.8 NW 14.5 0.0 0.3
17:36 9.6 9.5 99 1020.6 10.7 NW 14.5 0.0 0.3
17:37 9.6 9.5 99 1020.6 6.9 W 14.5 0.0 0.3
17:38 9.6 9.5 99 1020.4 9.2 W 14.5 0.0 0.3
17:39 9.6 9.5 99 1020.5 9.2 W 14.5 0.0 0.3
17:40 9.6 9.5 99 1020.5 9.8 W 14.5 0.0 0.3
17:41 9.6 9.5 99 1020.7 11.4 NW 14.5 0.0 0.3
17:42 9.6 9.5 99 1020.7 11.4 NW 13.6 0.0 0.3
17:43 9.6 9.5 99 1020.5 8.3 W 13.6 0.0 0.3
17:44 9.5 9.4 99 1020.6 9.8 W 13.6 0.0 0.3
17:45 9.5 9.4 99 1020.5 6.0 W 12.1 0.0 0.3
17:46 9.5 9.4 99 1020.5 9.8 NW 12.1 0.0 0.3
17:47 9.5 9.4 99 1020.5 11.4 NW 12.1 0.0 0.3
17:48 9.5 9.4 99 1020.6 7.6 NW 12.1 0.0 0.3
17:49 9.5 9.4 99 1020.6 8.3 NW 12.1 0.0 0.3
17:50 9.5 9.4 99 1020.5 12.1 W 12.1 0.0 0.3
17:51 9.5 9.4 99 1020.5 8.3 W 12.1 0.0 0.3
17:52 9.5 9.4 99 1020.5 9.8 W 12.1 0.0 0.3
17:53 9.5 9.4 99 1020.6 11.4 W 12.1 0.0 0.3
17:54 9.5 9.4 99 1020.4 11.4 W 12.1 0.0 0.3
17:56 9.5 9.4 99 1020.6 9.8 W 12.1 0.0 0.3
17:57 9.5 9.4 99 1020.5 10.7 W 12.1 0.0 0.3
17:58 9.4 9.3 99 1020.5 9.2 W 12.1 0.0 0.3
17:59 9.4 9.3 99 1020.4 11.4 W 12.1 0.0 0.3
18:00 9.4 9.3 99 1020.5 16.8 NW 16.8 0.0 0.3
18:01 9.4 9.3 99 1020.4 16.8 NW 16.8 0.0 0.3
18:02 9.4 9.3 99 1020.4 16.8 NW 16.8 0.0 0.3
18:03 9.4 9.3 99 1020.4 16.8 NW 16.8 0.0 0.3
18:04 9.4 9.3 99 1020.3 16.8 NW 16.8 0.0 0.3
18:05 9.4 9.3 99 1020.4 5.4 W 16.8 0.0 0.3
18:06 9.4 9.3 99 1020.4 8.3 NW 16.8 0.0 0.3
18:07 9.4 9.3 99 1020.6 12.1 W 16.8 0.0 0.3
18:08 9.3 9.2 99 1020.3 10.7 W 16.8 0.0 0.3
18:09 9.3 9.2 99 1020.5 10.7 WSW 16.8 0.0 0.3
18:11 9.3 9.2 99 1020.5 6.9 W 16.8 0.0 0.3
18:12 9.3 9.2 99 1020.4 10.7 NW 16.8 0.0 0.3
18:13 9.3 9.2 99 1020.7 4.5 W 16.8 0.0 0.3
18:15 9.3 9.2 99 1020.4 9.8 W 14.5 0.0 0.3
18:16 9.3 9.2 99 1020.7 13.0 NW 14.5 0.0 0.3
18:18 9.3 9.2 99 1020.6 9.2 NW 14.5 0.0 0.3
18:19 9.3 9.2 99 1020.5 10.7 W 14.5 0.0 0.3
18:20 9.3 9.2 99 1020.4 11.4 NW 14.5 0.0 0.3
18:21 9.3 9.2 99 1020.6 9.2 NW 14.5 0.0 0.3
18:22 9.3 9.2 99 1020.4 6.0 NW 14.5 0.0 0.3
18:24 9.3 9.2 99 1020.3 10.7 NW 14.5 0.0 0.3
18:25 9.2 9.1 99 1020.5 8.3 W 13.0 0.0 0.3
18:26 9.3 9.2 99 1020.6 8.3 W 13.0 0.0 0.3
18:27 9.2 9.1 99 1020.6 8.3 W 11.4 0.0 0.3
18:28 9.2 9.1 99 1020.5 9.8 NW 11.4 0.0 0.3
18:29 9.2 9.1 99 1020.6 13.0 W 13.0 0.0 0.3
18:30 9.2 9.1 99 1020.7 9.8 WSW 13.0 0.0 0.3
18:31 9.2 9.1 99 1020.5 6.0 NW 13.6 0.0 0.3
18:32 9.2 9.1 99 1020.6 13.6 NW 13.6 0.0 0.3
18:33 9.2 9.1 99 1020.5 10.7 W 13.6 0.0 0.3
18:34 9.2 9.1 99 1020.6 9.2 W 13.6 0.0 0.3
18:36 9.2 9.1 99 1020.6 9.2 W 13.6 0.0 0.3
18:37 9.2 9.1 99 1020.6 6.0 NW 13.6 0.0 0.3
18:38 9.1 9.0 99 1020.6 6.0 NW 13.6 0.0 0.3
18:39 9.1 9.0 99 1020.5 7.6 NW 13.6 0.0 0.3
18:41 9.1 9.0 99 1020.5 7.6 WSW 13.6 0.0 0.3
18:42 9.1 9.0 99 1020.6 5.4 W 13.6 0.0 0.3
18:43 9.1 9.0 99 1020.5 5.4 W 10.7 0.0 0.3
18:44 9.1 9.0 99 1020.7 6.9 W 10.7 0.0 0.3
18:45 9.1 9.0 99 1020.6 9.2 NW 10.7 0.0 0.3
18:46 9.1 9.0 99 1020.6 5.4 NW 10.7 0.0 0.3
18:47 9.1 9.0 99 1020.6 6.0 N 10.7 0.0 0.3
18:49 9.1 9.0 99 1020.6 11.4 W 11.4 0.0 0.3
18:50 9.1 9.0 99 1020.4 8.3 NW 11.4 0.0 0.3
18:51 9.1 9.0 99 1020.6 8.3 W 11.4 0.0 0.3
18:52 9.1 9.0 99 1020.6 11.4 W 11.4 0.0 0.3
18:53 9.1 9.0 99 1020.5 9.8 W 11.4 0.0 0.3
18:55 9.1 9.0 99 1020.7 9.8 WSW 11.4 0.0 0.3
18:56 9.1 9.0 99 1020.7 12.1 W 12.1 0.0 0.3
18:57 9.1 9.0 99 1020.7 9.8 NW 12.1 0.0 0.3
18:58 9.1 9.0 99 1020.6 8.3 NW 12.1 0.0 0.3
18:59 9.1 9.0 99 1020.7 9.2 W 12.1 0.0 0.3
19:00 9.1 9.0 99 1020.7 10.7 W 12.1 0.0 0.3
19:01 9.1 9.0 99 1020.7 10.7 W 12.1 0.0 0.3
19:02 9.1 9.0 99 1020.7 10.7 W 12.1 0.0 0.3
19:03 9.1 9.0 99 1020.7 10.7 W 12.1 0.0 0.3
19:04 9.1 9.0 99 1020.7 10.7 W 12.1 0.0 0.3
19:06 9.0 8.9 99 1020.6 8.3 W 12.1 0.0 0.3
19:07 9.0 8.9 99 1020.7 8.3 W 10.7 0.0 0.3
19:08 9.0 8.9 99 1020.7 9.8 NW 10.7 0.0 0.3
19:09 9.0 8.9 99 1020.5 10.7 NW 10.7 0.0 0.3
19:10 9.0 8.9 99 1020.6 12.1 W 12.1 0.0 0.3
19:11 9.0 8.9 99 1020.5 8.3 W 12.1 0.0 0.3
19:12 9.0 8.9 99 1020.6 5.4 NW 12.1 0.0 0.3
19:13 9.0 8.9 99 1020.6 6.9 NW 12.1 0.0 0.3
19:15 9.0 8.9 99 1020.6 9.8 W 12.1 0.0 0.3
19:16 9.0 8.9 99 1020.6 9.2 W 12.1 0.0 0.3
19:17 9.0 8.9 99 1020.6 8.3 NW 12.1 0.0 0.3
19:18 9.0 8.9 99 1020.7 9.8 NW 12.1 0.0 0.3
19:19 9.0 8.9 99 1020.6 9.2 W 12.1 0.0 0.3
19:20 9.0 8.9 99 1020.5 9.8 NW 9.8 0.0 0.3
19:22 9.1 9.0 99 1020.5 7.6 W 9.8 0.0 0.3
19:23 9.0 8.9 99 1020.5 11.4 W 11.4 0.0 0.3
19:24 9.1 9.0 99 1020.6 9.2 N 11.4 0.0 0.3
19:25 9.0 8.9 99 1020.5 12.1 W 12.1 0.0 0.3
19:26 9.0 8.9 99 1020.7 14.5 W 15.2 0.0 0.3
19:27 9.0 8.9 99 1020.7 12.1 W 15.2 0.0 0.3
19:28 9.0 8.9 99 1020.6 10.7 SW 15.2 0.0 0.3
19:29 9.0 8.9 99 1020.7 10.7 W 15.2 0.0 0.3
19:30 9.0 8.9 99 1020.5 14.5 W 15.2 0.0 0.3
19:32 9.0 8.9 99 1020.7 9.2 W 15.2 0.0 0.3
19:33 9.1 9.0 99 1020.6 7.6 W 15.2 0.0 0.3
19:34 9.0 8.9 99 1020.7 9.8 W 15.2 0.0 0.3
19:35 9.1 9.0 99 1020.6 8.3 NW 15.2 0.0 0.3
19:36 9.1 9.0 99 1020.7 11.4 NW 14.5 0.0 0.3
19:37 9.0 8.9 99 1020.6 8.3 WNW 14.5 0.0 0.3
19:39 9.1 9.0 99 1020.7 7.6 W 14.5 0.0 0.3
19:40 9.1 9.0 99 1020.7 7.6 W 14.5 0.0 0.3
19:41 9.1 9.0 99 1020.7 6.0 NW 13.0 0.0 0.3
19:42 9.1 9.0 99 1020.6 10.7 W 11.4 0.0 0.3
19:43 9.1 9.0 99 1020.8 9.8 NW 11.4 0.0 0.3
19:44 9.1 9.0 99 1020.8 9.2 W 11.4 0.0 0.3
19:45 9.1 9.0 99 1020.7 11.4 NW 11.4 0.0 0.3
19:46 9.0 8.9 99 1020.8 11.4 NW 11.4 0.0 0.3
19:47 9.1 9.0 99 1020.7 13.0 W 13.0 0.0 0.3
19:49 9.1 9.0 99 1020.7 13.6 W 13.6 0.0 0.3
19:50 9.0 8.9 99 1020.7 12.1 W 13.6 0.0 0.3
19:51 9.1 9.0 99 1020.8 12.1 W 13.6 0.0 0.3
19:52 9.1 9.0 99 1020.8 11.4 NW 13.6 0.0 0.3
19:53 9.1 9.0 99 1020.8 10.7 W 13.6 0.0 0.3
19:54 9.1 9.0 99 1020.7 15.2 NW 15.2 0.0 0.3
19:55 9.1 9.0 99 1020.9 13.0 NW 15.2 0.0 0.3
19:56 9.1 9.0 99 1020.9 6.9 W 15.2 0.0 0.3
19:57 9.1 9.0 99 1020.7 9.2 W 15.2 0.0 0.3
19:59 9.0 8.9 99 1020.7 11.4 NW 15.2 0.0 0.3
20:00 9.0 8.9 99 1020.7 13.0 W 15.2 0.0 0.3
20:01 9.0 8.9 99 1020.7 13.0 W 15.2 0.0 0.3
20:02 9.0 8.9 99 1020.8 13.0 W 15.2 0.0 0.3
20:03 9.0 8.9 99 1020.8 13.0 W 15.2 0.0 0.3
20:04 9.0 8.9 99 1020.8 13.0 W 13.0 0.0 0.3
20:05 9.1 9.0 99 1020.9 10.7 W 13.0 0.0 0.3
20:06 9.1 9.0 99 1020.7 14.5 W 14.5 0.0 0.3
20:08 9.0 8.9 99 1020.7 15.2 WSW 15.2 0.0 0.3
20:09 9.0 8.9 99 1020.8 12.1 W 15.2 0.0 0.3
20:10 9.0 8.9 99 1020.7 11.4 W 15.2 0.0 0.3
20:11 9.0 8.9 99 1020.7 13.0 WSW 15.2 0.0 0.3
20:13 9.0 8.9 99 1020.8 9.2 NW 15.2 0.0 0.3
20:15 9.0 8.9 99 1020.7 9.2 W 15.2 0.0 0.3
20:16 9.0 8.9 99 1020.7 11.4 NW 15.2 0.0 0.3
20:18 9.0 8.9 99 1020.9 9.8 NW 13.0 0.0 0.3
20:20 9.0 8.9 99 1020.8 12.1 W 13.0 0.0 0.3
20:21 9.0 8.9 99 1020.9 10.7 W 13.0 0.0 0.3
20:23 9.0 8.9 99 1020.9 11.4 NW 12.1 0.0 0.3
20:24 9.0 8.9 99 1020.9 9.8 W 12.1 0.0 0.3
20:25 9.0 8.9 99 1020.9 9.8 W 12.1 0.0 0.3
20:27 9.0 8.9 99 1020.8 13.6 NE 13.6 0.0 0.3
20:28 9.0 8.9 99 1020.8 12.1 W 13.6 0.0 0.3
20:29 9.0 8.9 99 1020.9 9.2 W 13.6 0.0 0.3
20:30 8.9 8.8 99 1020.9 13.6 NW 13.6 0.0 0.3
20:31 9.0 8.9 99 1021.0 11.4 NW 13.6 0.0 0.3
20:32 8.9 8.8 99 1020.9 15.2 W 15.2 0.0 0.3
20:33 8.9 8.8 99 1020.9 13.0 NW 15.2 0.0 0.3
20:34 8.9 8.8 99 1020.9 13.6 W 15.2 0.0 0.3
20:35 8.9 8.8 99 1021.0 9.8 NW 15.2 0.0 0.3
20:37 8.9 8.8 99 1021.0 12.1 NW 15.2 0.0 0.3
20:38 8.9 8.8 99 1020.9 9.8 WSW 15.2 0.0 0.3
20:39 8.9 8.8 99 1020.9 9.8 NW 15.2 0.0 0.3
20:40 8.9 8.8 99 1020.9 9.2 W 15.2 0.0 0.3
20:41 8.9 8.8 99 1020.9 9.8 NW 15.2 0.0 0.3
20:42 8.9 8.8 99 1020.8 6.0 W 15.2 0.0 0.3
20:43 8.8 8.7 99 1020.7 9.8 W 14.5 0.0 0.3
20:44 8.9 8.8 99 1020.8 11.4 NW 14.5 0.0 0.3
20:45 8.8 8.7 99 1020.8 9.2 NW 14.5 0.0 0.3
20:47 8.8 8.7 99 1020.8 10.7 W 14.5 0.0 0.3
20:48 8.8 8.7 99 1020.8 6.9 W 11.4 0.0 0.3
20:49 8.9 8.8 99 1021.0 8.3 NW 11.4 0.0 0.3
20:50 8.8 8.7 99 1020.8 8.3 W 11.4 0.0 0.3
20:51 8.9 8.8 99 1020.8 10.7 NW 11.4 0.0 0.3
20:52 8.8 8.7 99 1020.7 11.4 W 11.4 0.0 0.3
20:53 8.8 8.7 99 1020.8 8.3 NW 11.4 0.0 0.3
20:54 8.8 8.7 99 1020.8 10.7 NW 11.4 0.0 0.3
20:55 8.8 8.7 99 1020.8 10.7 NW 11.4 0.0 0.3
20:57 8.8 8.7 99 1021.0 10.7 NE 11.4 0.0 0.3
20:58 8.9 8.8 99 1021.0 8.3 W 11.4 0.0 0.3
20:59 8.8 8.7 99 1021.2 8.3 W 11.4 0.0 0.3
21:00 8.8 8.7 99 1021.1 9.2 W 11.4 0.0 0.3
21:01 8.8 8.7 99 1021.1 9.2 W 11.4 0.0 0.3
21:02 8.8 8.7 99 1021.0 9.2 W 11.4 0.0 0.3
21:03 8.8 8.7 99 1021.0 9.2 W 10.7 0.0 0.3
21:05 8.9 8.8 99 1021.1 10.7 W 10.7 0.0 0.3
21:06 8.9 8.8 99 1021.0 7.6 W 10.7 0.0 0.3
21:07 8.9 8.8 99 1020.8 8.3 NW 10.7 0.0 0.3
21:08 8.9 8.8 99 1021.0 8.3 NW 10.7 0.0 0.3
21:09 9.0 8.9 99 1021.1 9.2 W 10.7 0.0 0.3
21:10 8.9 8.8 99 1021.0 13.0 E 13.0 0.0 0.3
21:11 9.0 8.9 99 1021.0 6.9 W 13.0 0.0 0.3
21:13 9.0 8.9 99 1020.8 9.8 W 13.0 0.0 0.3
21:14 9.0 8.9 99 1020.9 9.8 NW 13.0 0.0 0.3
21:15 9.0 8.9 99 1021.0 5.4 WSW 13.0 0.0 0.3
21:16 9.0 8.9 99 1021.0 11.4 N 14.5 0.0 0.3
21:17 9.0 8.9 99 1021.0 8.3 WSW 14.5 0.0 0.3
21:18 9.0 8.9 99 1020.9 10.7 W 14.5 0.0 0.3
21:19 9.0 8.9 99 1020.7 9.2 W 14.5 0.0 0.3
21:20 9.0 8.9 99 1020.9 7.6 NW 14.5 0.0 0.3
21:22 9.0 8.9 99 1021.0 6.9 W 14.5 0.0 0.3
21:23 9.0 8.9 99 1020.9 9.2 W 14.5 0.0 0.3
21:24 9.0 8.9 99 1020.9 12.1 N 14.5 0.0 0.3
21:25 9.0 8.9 99 1021.0 9.8 NW 14.5 0.0 0.3
21:26 9.0 8.9 99 1020.8 13.6 W 13.6 0.0 0.3
21:27 9.0 8.9 99 1021.0 9.2 W 13.6 0.0 0.3
21:28 9.0 8.9 99 1020.8 9.2 W 13.6 0.0 0.3
21:29 9.0 8.9 99 1020.8 13.0 W 13.6 0.0 0.3
21:31 9.0 8.9 99 1021.0 7.6 W 13.6 0.0 0.3
21:32 9.0 8.9 99 1020.7 13.0 W 13.6 0.0 0.3
21:33 9.0 8.9 99 1020.8 11.4 W 14.5 0.0 0.3
21:34 9.0 8.9 99 1020.8 9.8 W 14.5 0.0 0.3
21:35 9.0 8.9 99 1021.0 14.5 N 14.5 0.0 0.3
21:36 9.0 8.9 99 1021.0 11.4 NW 14.5 0.0 0.3
21:37 9.0 8.9 99 1020.8 16.8 NW 16.8 0.0 0.3
21:38 9.0 8.9 99 1020.9 15.9 W 16.8 0.0 0.3
21:39 9.0 8.9 99 1020.9 13.6 W 16.8 0.0 0.3
21:40 9.0 8.9 99 1021.1 10.7 W 16.8 0.0 0.3
21:42 9.0 8.9 99 1020.9 12.1 NW 16.8 0.0 0.3
21:43 8.9 8.8 99 1020.9 8.3 WSW 16.8 0.0 0.3
21:44 9.0 8.9 99 1020.8 6.9 W 16.8 0.0 0.3
21:45 8.9 8.8 99 1020.8 9.2 W 16.8 0.0 0.3
21:46 8.9 8.8 99 1020.8 10.7 NW 16.8 0.0 0.3
21:48 8.9 8.8 99 1020.9 9.2 W 15.9 0.0 0.3
21:49 8.9 8.8 99 1020.9 12.1 W 13.6 0.0 0.3
21:50 8.9 8.8 99 1020.7 12.1 NW 12.1 0.0 0.3
21:51 8.9 8.8 99 1020.8 13.6 N 13.6 0.0 0.3
21:52 8.9 8.8 99 1021.0 9.2 W 13.6 0.0 0.3
21:53 8.9 8.8 99 1020.8 12.1 NW 13.6 0.0 0.3
21:55 8.9 8.8 99 1020.9 9.8 S 15.2 0.0 0.3
21:56 8.9 8.8 99 1021.0 10.7 W 15.2 0.0 0.3
21:57 8.9 8.8 99 1020.8 13.0 W 15.2 0.0 0.3
21:58 8.9 8.8 99 1020.8 9.8 WSW 15.2 0.0 0.3
22:00 8.9 8.8 99 1020.8 7.6 W 15.2 0.0 0.3
22:01 8.9 8.8 99 1020.8 13.6 NW 15.2 0.0 0.3
22:02 8.9 8.8 99 1020.7 9.2 NW 15.2 0.0 0.3
22:03 8.9 8.8 99 1020.7 9.2 W 15.2 0.0 0.3
22:05 8.9 8.8 99 1020.7 10.7 W 13.6 0.0 0.3
22:06 8.9 8.8 99 1020.8 8.3 W 13.6 0.0 0.3
22:07 8.9 8.8 99 1020.8 9.2 NW 13.6 0.0 0.3
22:08 8.9 8.8 99 1020.9 8.3 W 13.6 0.0 0.3
22:09 8.9 8.8 99 1020.7 8.3 W 13.6 0.0 0.3
22:10 8.9 8.8 99 1020.9 11.4 W 13.6 0.0 0.3
22:12 8.9 8.8 99 1020.9 8.3 NW 12.1 0.0 0.3
22:13 8.9 8.8 99 1020.8 9.2 W 12.1 0.0 0.3
22:15 9.0 8.9 99 1020.8 9.8 W 11.4 0.0 0.3
22:16 9.0 8.9 99 1020.8 7.6 W 11.4 0.0 0.3
22:18 8.9 8.8 99 1020.9 7.6 NW 11.4 0.0 0.3
22:20 8.9 8.8 99 1020.8 7.6 NW 11.4 0.0 0.3
22:21 8.9 8.8 99 1021.0 9.2 W 11.4 0.0 0.3
22:23 9.0 8.9 99 1021.0 10.7 W 11.4 0.0 0.3
22:25 9.0 8.9 99 1020.9 12.1 NW 13.0 0.0 0.3
22:26 9.0 8.9 99 1020.9 9.2 NW 13.0 0.0 0.3
22:27 9.1 9.0 99 1020.9 10.7 W 13.0 0.0 0.3
22:29 9.0 8.9 99 1021.1 9.8 NW 14.5 0.0 0.3
22:30 9.1 9.0 99 1020.8 9.2 NW 14.5 0.0 0.3
22:31 9.1 9.0 99 1020.8 13.6 W 14.5 0.0 0.3
22:32 9.1 9.0 99 1020.8 12.1 NW 14.5 0.0 0.3
22:33 9.1 9.0 99 1020.9 15.2 W 15.2 0.0 0.3
22:34 9.1 9.0 99 1020.9 11.4 W 15.2 0.0 0.3
22:35 9.1 9.0 99 1020.9 7.6 W 15.2 0.0 0.3
22:37 9.1 9.0 99 1021.0 10.7 W 15.2 0.0 0.3
22:38 9.1 9.0 99 1021.0 7.6 NW 15.2 0.0 0.3
22:39 9.1 9.0 99 1021.1 7.6 NW 15.2 0.0 0.3
22:41 9.2 9.1 99 1021.1 10.7 NW 15.2 0.0 0.3
22:42 9.2 9.1 99 1021.0 10.7 W 15.2 0.0 0.3
22:43 9.2 9.1 99 1021.2 10.7 W 13.0 0.0 0.3
22:45 9.2 9.1 99 1021.2 13.0 W 13.0 0.0 0.3
22:46 9.2 9.1 99 1021.2 12.1 W 13.0 0.0 0.3
22:48 9.2 9.1 99 1021.2 9.2 NW 13.0 0.0 0.3
22:49 9.2 9.1 99 1021.2 7.6 NW 13.0 0.0 0.3
22:51 9.2 9.1 99 1021.1 10.7 W 13.0 0.0 0.3
22:52 9.2 9.1 99 1021.3 11.4 W 13.0 0.0 0.3
22:53 9.2 9.1 99 1021.3 9.8 W 13.0 0.0 0.3
22:55 9.2 9.1 99 1021.3 9.8 W 13.0 0.0 0.3
22:58 9.2 9.1 99 1021.2 10.7 W 11.4 0.0 0.3
23:00 9.2 9.1 99 1021.2 11.4 W 12.1 0.0 0.3
23:02 9.2 9.1 99 1021.2 11.4 W 12.1 0.0 0.3
23:04 9.2 9.1 99 1021.3 11.4 W 12.1 0.0 0.3
23:06 9.3 9.2 99 1021.2 8.3 W 12.1 0.0 0.3
23:08 9.3 9.2 99 1021.3 9.8 W 12.1 0.0 0.3
23:10 9.3 9.2 99 1021.3 6.0 NW 11.4 0.0 0.3
23:12 9.3 9.2 99 1021.4 10.7 N 11.4 0.0 0.3
23:13 9.3 9.2 99 1021.3 9.8 NW 13.0 0.0 0.3
23:14 9.3 9.2 99 1021.3 6.0 NE 13.0 0.0 0.3
23:15 9.3 9.2 99 1021.4 6.0 NW 13.0 0.0 0.3
23:17 9.3 9.2 99 1021.5 7.6 W 13.0 0.0 0.3
23:18 9.3 9.2 99 1021.4 3.8 NW 13.0 0.0 0.3
23:20 9.3 9.2 99 1021.4 7.6 NW 13.0 0.0 0.3
23:21 9.3 9.2 99 1021.5 12.1 NW 13.0 0.0 0.3
23:22 9.3 9.2 99 1021.5 7.6 NW 12.1 0.0 0.3
23:23 9.3 9.2 99 1021.4 8.3 W 12.1 0.0 0.3
23:25 9.3 9.2 99 1021.4 8.3 NW 12.1 0.0 0.3
23:26 9.3 9.2 99 1021.5 9.2 NW 12.1 0.0 0.3
23:28 9.3 9.2 99 1021.7 8.3 NW 12.1 0.0 0.3
23:29 9.3 9.2 99 1021.6 9.2 N 12.1 0.0 0.3
23:31 9.3 9.2 99 1021.5 8.3 W 9.8 0.0 0.3
23:33 9.3 9.2 99 1021.6 9.8 W 9.8 0.0 0.3
23:34 9.3 9.2 99 1021.6 6.0 NW 9.8 0.0 0.3
23:35 9.3 9.2 99 1021.5 12.1 NW 12.1 0.0 0.3
23:37 9.3 9.2 99 1021.6 7.6 NW 12.1 0.0 0.3
23:39 9.3 9.2 99 1021.5 6.9 NW 14.5 0.0 0.3
23:41 9.2 9.1 99 1021.5 10.7 NW 14.5 0.0 0.3
23:43 9.2 9.1 99 1021.6 7.6 NW 14.5 0.0 0.3
23:46 9.2 9.1 99 1021.7 7.6 W 14.5 0.0 0.3
23:49 9.2 9.1 99 1021.7 6.0 W 11.4 0.0 0.3
23:52 9.2 9.1 99 1021.6 9.2 W 13.0 0.0 0.3
23:53 9.2 9.1 99 1021.6 10.7 W 13.0 0.0 0.3
23:55 9.2 9.1 99 1021.8 13.0 W 13.0 0.0 0.3
23:56 9.1 9.0 99 1021.7 9.2 W 13.0 0.0 0.3
23:58 9.1 9.0 99 1021.9 6.9 W 13.0 0.0 0.3

UK - WEATHER STATION TOPSITES - UK World Weather Websites

This is a private weather station, never base important decisions or events on data from this weather station. Although every effort has been made to make the data as accurate as possible it does not meet MetOffice standards. It is proved as a guide of local weather conditions. We accept no liability for any loss which may arise from use of the data.

Copyright © Carnkie Weather 2009 - 2018.